Wetterdaten: Montag, 07.11.2022
Datum Zeit Temp. Aussen Temp. o. S. Temp +5cm Feuchte Auss Luftdruck Regen Sonnenschein Regendauer Solar Windben Empfang
07.11.2022 00:00 10,8 C 10,0 C 6,7 C 88 % 1009,4 hPa 0,0 l/m 0 min 0 min 0 W/m 19,3 km/h (3 Bft) 89,36 %
07.11.2022 00:02 10,8 C 10,0 C 6,7 C 88 % 1009,5 hPa 0,0 l/m 0 min 0 min 0 W/m 12,9 km/h (3 Bft) 92,68 %
07.11.2022 00:04 10,8 C 10,0 C 6,7 C 88 % 1009,5 hPa 0,0 l/m 0 min 0 min 0 W/m 22,5 km/h (4 Bft) 100,00 %
07.11.2022 00:08 10,8 C 10,0 C 6,7 C 88 % 1009,4 hPa 0,0 l/m 0 min 0 min 0 W/m 25,7 km/h (4 Bft) 92,31 %
07.11.2022 00:10 10,8 C 10,0 C 6,7 C 88 % 1009,5 hPa 0,0 l/m 0 min 0 min 0 W/m 25,7 km/h (4 Bft) 97,87 %
07.11.2022 00:12 10,9 C 10,0 C 6,7 C 88 % 1009,4 hPa 0,0 l/m 0 min 0 min 0 W/m 12,9 km/h (3 Bft) 95,74 %
07.11.2022 00:14 10,9 C 10,6 C 6,7 C 88 % 1009,5 hPa 0,0 l/m 0 min 0 min 0 W/m 19,3 km/h (3 Bft) 91,30 %
07.11.2022 00:16 10,9 C 10,6 C 6,7 C 88 % 1009,5 hPa 0,0 l/m 0 min 0 min 0 W/m 16,1 km/h (3 Bft) 97,87 %
07.11.2022 00:18 10,9 C 10,6 C 6,7 C 88 % 1009,5 hPa 0,0 l/m 0 min 0 min 0 W/m 25,7 km/h (4 Bft) 93,62 %
07.11.2022 00:20 10,9 C 10,6 C 6,7 C 88 % 1009,5 hPa 0,0 l/m 0 min 0 min 0 W/m 16,1 km/h (3 Bft) 95,74 %
07.11.2022 00:22 11,0 C 10,0 C 6,7 C 88 % 1009,6 hPa 0,0 l/m 0 min 0 min 0 W/m 19,3 km/h (3 Bft) 87,23 %
07.11.2022 00:24 11,0 C 10,6 C 6,7 C 88 % 1009,5 hPa 0,0 l/m 0 min 0 min 0 W/m 25,7 km/h (4 Bft) 95,74 %
07.11.2022 00:26 11,0 C 10,6 C 6,7 C 88 % 1009,5 hPa 0,0 l/m 0 min 0 min 0 W/m 25,7 km/h (4 Bft) 97,83 %
07.11.2022 00:28 11,0 C 10,6 C 6,7 C 88 % 1009,5 hPa 0,0 l/m 0 min 0 min 0 W/m 22,5 km/h (4 Bft) 95,74 %
07.11.2022 00:30 11,1 C 10,6 C 6,7 C 88 % 1009,5 hPa 0,0 l/m 0 min 0 min 0 W/m 25,7 km/h (4 Bft) 93,62 %
07.11.2022 00:32 11,1 C 10,6 C 6,7 C 88 % 1009,5 hPa 0,0 l/m 0 min 0 min 0 W/m 32,2 km/h (5 Bft) 93,62 %
07.11.2022 00:34 11,1 C 10,0 C 6,7 C 88 % 1009,6 hPa 0,0 l/m 0 min 0 min 0 W/m 22,5 km/h (4 Bft) 93,62 %
07.11.2022 00:36 11,0 C 10,0 C 6,7 C 88 % 1009,6 hPa 0,0 l/m 0 min 0 min 0 W/m 19,3 km/h (3 Bft) 91,49 %
07.11.2022 00:38 11,0 C 10,0 C 6,7 C 88 % 1009,5 hPa 0,0 l/m 0 min 0 min 0 W/m 35,4 km/h (5 Bft) 95,65 %
07.11.2022 00:40 11,0 C 10,0 C 6,7 C 88 % 1009,6 hPa 0,0 l/m 0 min 0 min 0 W/m 16,1 km/h (3 Bft) 94,59 %
07.11.2022 00:42 10,9 C 10,0 C 6,7 C 88 % 1009,6 hPa 0,0 l/m 0 min 0 min 0 W/m 22,5 km/h (4 Bft) 89,36 %
07.11.2022 00:45 10,9 C 10,0 C 6,7 C 88 % 1009,6 hPa 0,0 l/m 0 min 0 min 0 W/m 32,2 km/h (5 Bft) 96,34 %
07.11.2022 00:46 10,9 C 10,0 C 6,7 C 88 % 1009,6 hPa 0,0 l/m 0 min 0 min 0 W/m 22,5 km/h (4 Bft) 66,67 %
07.11.2022 00:50 10,9 C 10,0 C 6,7 C 88 % 1009,7 hPa 0,0 l/m 0 min 0 min 0 W/m 29,0 km/h (5 Bft) 92,38 %
07.11.2022 00:51 10,9 C 10,0 C 6,7 C 88 % 1009,7 hPa 0,0 l/m 0 min 0 min 0 W/m 22,5 km/h (4 Bft) 95,83 %
07.11.2022 00:52 11,0 C 10,0 C 6,7 C 88 % 1009,7 hPa 0,0 l/m 0 min 0 min 0 W/m 25,7 km/h (4 Bft) 81,82 %
07.11.2022 00:54 11,0 C 10,0 C 6,7 C 89 % 1009,7 hPa 0,0 l/m 0 min 0 min 0 W/m 12,9 km/h (3 Bft) 95,74 %
07.11.2022 00:56 10,9 C 10,0 C 6,7 C 89 % 1009,8 hPa 0,0 l/m 0 min 0 min 0 W/m 22,5 km/h (4 Bft) 93,62 %
07.11.2022 00:58 10,9 C 10,0 C 6,7 C 89 % 1009,7 hPa 0,0 l/m 0 min 0 min 0 W/m 22,5 km/h (4 Bft) 91,49 %
07.11.2022 01:01 10,9 C 10,0 C 6,7 C 89 % 1009,8 hPa 0,0 l/m 0 min 0 min 0 W/m 19,3 km/h (3 Bft) 84,15 %
07.11.2022 01:02 10,9 C 10,0 C 6,7 C 89 % 1009,8 hPa 0,0 l/m 0 min 0 min 0 W/m 6,4 km/h (2 Bft) 75,00 %
07.11.2022 01:04 10,9 C 10,0 C 6,7 C 89 % 1009,8 hPa 0,0 l/m 0 min 0 min 0 W/m 19,3 km/h (3 Bft) 73,91 %
07.11.2022 01:06 10,9 C 10,0 C 6,7 C 89 % 1009,8 hPa 0,0 l/m 0 min 0 min 0 W/m 29,0 km/h (5 Bft) 67,80 %
07.11.2022 01:08 10,9 C 10,0 C 6,7 C 89 % 1009,8 hPa 0,0 l/m 0 min 0 min 0 W/m 32,2 km/h (5 Bft) 65,71 %
07.11.2022 01:10 11,0 C 10,6 C 6,7 C 89 % 1009,9 hPa 0,0 l/m 0 min 0 min 0 W/m 38,6 km/h (5 Bft) 78,72 %
07.11.2022 01:12 11,0 C 10,6 C 6,7 C 89 % 1009,9 hPa 0,0 l/m 0 min 0 min 0 W/m 16,1 km/h (3 Bft) 78,72 %
07.11.2022 01:14 11,0 C 10,6 C 6,7 C 89 % 1009,9 hPa 0,0 l/m 0 min 0 min 0 W/m 16,1 km/h (3 Bft) 78,72 %
07.11.2022 01:16 11,0 C 10,6 C 6,7 C 89 % 1009,9 hPa 0,0 l/m 0 min 0 min 0 W/m 22,5 km/h (4 Bft) 76,09 %
07.11.2022 01:18 11,0 C 10,6 C 6,7 C 89 % 1009,9 hPa 0,0 l/m 0 min 0 min 0 W/m 16,1 km/h (3 Bft) 72,34 %
07.11.2022 01:20 11,1 C 10,6 C 6,7 C 89 % 1009,9 hPa 0,0 l/m 0 min 0 min 0 W/m 25,7 km/h (4 Bft) 78,72 %
07.11.2022 01:22 11,1 C 10,6 C 6,7 C 89 % 1009,9 hPa 0,0 l/m 0 min 0 min 0 W/m 19,3 km/h (3 Bft) 97,87 %
07.11.2022 01:24 11,1 C 10,0 C 6,7 C 89 % 1010,0 hPa 0,0 l/m 0 min 0 min 0 W/m 16,1 km/h (3 Bft) 100,00 %
07.11.2022 01:26 11,1 C 10,0 C 6,7 C 89 % 1009,9 hPa 0,0 l/m 0 min 0 min 0 W/m 22,5 km/h (4 Bft) 100,00 %
07.11.2022 01:28 11,1 C 10,6 C 6,7 C 89 % 1009,9 hPa 0,0 l/m 0 min 0 min 0 W/m 29,0 km/h (5 Bft) 93,62 %
07.11.2022 01:30 11,1 C 10,6 C 7,2 C 89 % 1010,0 hPa 0,0 l/m 0 min 0 min 0 W/m 41,8 km/h (6 Bft) 93,62 %
07.11.2022 01:32 11,1 C 10,6 C 7,2 C 89 % 1009,9 hPa 0,0 l/m 0 min 0 min 0 W/m 25,7 km/h (4 Bft) 100,00 %
07.11.2022 01:34 11,1 C 10,6 C 7,2 C 89 % 1009,9 hPa 0,0 l/m 0 min 0 min 0 W/m 25,7 km/h (4 Bft) 100,00 %
07.11.2022 01:36 11,1 C 10,6 C 7,2 C 89 % 1009,9 hPa 0,0 l/m 0 min 0 min 0 W/m 29,0 km/h (5 Bft) 96,55 %
07.11.2022 01:38 11,1 C 10,6 C 6,7 C 89 % 1009,9 hPa 0,0 l/m 0 min 0 min 0 W/m 35,4 km/h (5 Bft) 94,29 %
07.11.2022 01:40 11,1 C 10,6 C 6,7 C 89 % 1009,9 hPa 0,0 l/m 0 min 0 min 0 W/m 29,0 km/h (5 Bft) 91,49 %
07.11.2022 01:42 11,1 C 10,0 C 6,7 C 88 % 1010,0 hPa 0,0 l/m 0 min 0 min 0 W/m 25,7 km/h (4 Bft) 100,00 %
07.11.2022 01:44 11,1 C 10,0 C 6,7 C 88 % 1010,0 hPa 0,0 l/m 0 min 0 min 0 W/m 35,4 km/h (5 Bft) 97,87 %
07.11.2022 01:46 11,1 C 10,0 C 6,7 C 88 % 1010,0 hPa 0,0 l/m 0 min 0 min 0 W/m 29,0 km/h (5 Bft) 97,87 %
07.11.2022 01:48 11,1 C 10,0 C 6,7 C 88 % 1010,0 hPa 0,0 l/m 0 min 0 min 0 W/m 12,9 km/h (3 Bft) 97,87 %
07.11.2022 01:51 11,1 C 10,0 C 6,7 C 88 % 1009,9 hPa 0,0 l/m 0 min 0 min 0 W/m 25,7 km/h (4 Bft) 94,29 %
07.11.2022 01:52 11,1 C 10,0 C 6,7 C 88 % 1009,9 hPa 0,0 l/m 0 min 0 min 0 W/m 19,3 km/h (3 Bft) 95,65 %
07.11.2022 01:54 11,0 C 10,0 C 6,7 C 89 % 1010,0 hPa 0,0 l/m 0 min 0 min 0 W/m 29,0 km/h (5 Bft) 95,74 %
07.11.2022 01:56 11,0 C 10,0 C 6,7 C 89 % 1010,1 hPa 0,0 l/m 0 min 0 min 0 W/m 22,5 km/h (4 Bft) 95,74 %
07.11.2022 01:59 11,0 C 10,0 C 6,7 C 89 % 1009,9 hPa 0,0 l/m 0 min 0 min 0 W/m 25,7 km/h (4 Bft) 92,86 %
07.11.2022 02:00 10,9 C 10,0 C 6,7 C 89 % 1009,9 hPa 0,0 l/m 0 min 0 min 0 W/m 25,7 km/h (4 Bft) 100,00 %
07.11.2022 02:02 10,9 C 10,0 C 6,7 C 89 % 1010,0 hPa 0,0 l/m 0 min 0 min 0 W/m 12,9 km/h (3 Bft) 97,83 %
07.11.2022 02:04 10,9 C 10,0 C 6,7 C 89 % 1010,0 hPa 0,0 l/m 0 min 0 min 0 W/m 29,0 km/h (5 Bft) 97,87 %
07.11.2022 02:06 10,9 C 10,0 C 6,7 C 89 % 1010,0 hPa 0,0 l/m 0 min 0 min 0 W/m 16,1 km/h (3 Bft) 97,87 %
07.11.2022 02:09 10,8 C 10,0 C 6,7 C 89 % 1010,0 hPa 0,0 l/m 0 min 0 min 0 W/m 16,1 km/h (3 Bft) 97,44 %
07.11.2022 02:10 10,8 C 10,0 C 6,7 C 89 % 1009,9 hPa 0,0 l/m 0 min 0 min 0 W/m 12,9 km/h (3 Bft) 100,00 %
07.11.2022 02:14 10,7 C 9,4 C 6,7 C 89 % 1009,9 hPa 0,0 l/m 0 min 0 min 0 W/m 3,2 km/h (1 Bft) 100,00 %
07.11.2022 02:19 10,7 C 9,4 C 6,1 C 89 % 1010,0 hPa 0,0 l/m 0 min 0 min 0 W/m 16,1 km/h (3 Bft) 100,00 %
07.11.2022 02:20 10,7 C 9,4 C 6,1 C 89 % 1010,0 hPa 0,0 l/m 0 min 0 min 0 W/m 29,0 km/h (5 Bft) 100,00 %
07.11.2022 02:22 10,7 C 9,4 C 6,1 C 89 % 1010,0 hPa 0,0 l/m 0 min 0 min 0 W/m 12,9 km/h (3 Bft) 100,00 %
07.11.2022 02:24 10,6 C 9,4 C 6,1 C 89 % 1010,1 hPa 0,0 l/m 0 min 0 min 0 W/m 19,3 km/h (3 Bft) 100,00 %
07.11.2022 02:26 10,6 C 9,4 C 6,1 C 89 % 1010,1 hPa 0,0 l/m 0 min 0 min 0 W/m 12,9 km/h (3 Bft) 97,87 %
07.11.2022 02:28 10,6 C 9,4 C 6,1 C 89 % 1010,0 hPa 0,0 l/m 0 min 0 min 0 W/m 12,9 km/h (3 Bft) 100,00 %
07.11.2022 02:30 10,6 C 9,4 C 6,1 C 89 % 1010,0 hPa 0,0 l/m 0 min 0 min 0 W/m 22,5 km/h (4 Bft) 97,87 %
07.11.2022 02:32 10,6 C 9,4 C 6,1 C 89 % 1010,0 hPa 0,0 l/m 0 min 0 min 0 W/m 16,1 km/h (3 Bft) 91,49 %
07.11.2022 02:34 10,6 C 9,4 C 6,1 C 90 % 1010,0 hPa 0,0 l/m 0 min 0 min 0 W/m 12,9 km/h (3 Bft) 100,00 %
07.11.2022 02:36 10,5 C 9,4 C 6,1 C 90 % 1010,0 hPa 0,0 l/m 0 min 0 min 0 W/m 12,9 km/h (3 Bft) 100,00 %
07.11.2022 02:38 10,5 C 9,4 C 6,1 C 90 % 1010,0 hPa 0,0 l/m 0 min 0 min 0 W/m 12,9 km/h (3 Bft) 95,74 %
07.11.2022 02:40 10,5 C 9,4 C 6,1 C 90 % 1010,0 hPa 0,0 l/m 0 min 0 min 0 W/m 16,1 km/h (3 Bft) 93,48 %
07.11.2022 02:42 10,5 C 9,4 C 6,1 C 90 % 1009,9 hPa 0,0 l/m 0 min 0 min 0 W/m 22,5 km/h (4 Bft) 82,98 %
07.11.2022 02:44 10,5 C 9,4 C 6,1 C 90 % 1009,9 hPa 0,0 l/m 0 min 0 min 0 W/m 25,7 km/h (4 Bft) 89,36 %
07.11.2022 02:46 10,5 C 9,4 C 6,1 C 90 % 1009,9 hPa 0,0 l/m 0 min 0 min 0 W/m 16,1 km/h (3 Bft) 91,49 %
07.11.2022 02:48 10,6 C 9,4 C 6,1 C 90 % 1009,9 hPa 0,0 l/m 0 min 0 min 0 W/m 12,9 km/h (3 Bft) 95,74 %
07.11.2022 02:50 10,6 C 9,4 C 6,1 C 90 % 1009,9 hPa 0,0 l/m 0 min 0 min 0 W/m 12,9 km/h (3 Bft) 93,62 %
07.11.2022 02:52 10,6 C 9,4 C 6,1 C 90 % 1009,9 hPa 0,0 l/m 0 min 0 min 0 W/m 16,1 km/h (3 Bft) 97,83 %
07.11.2022 02:54 10,6 C 9,4 C 6,1 C 90 % 1009,9 hPa 0,0 l/m 0 min 0 min 0 W/m 19,3 km/h (3 Bft) 91,49 %
07.11.2022 02:56 10,6 C 10,0 C 6,7 C 90 % 1009,9 hPa 0,0 l/m 0 min 0 min 0 W/m 22,5 km/h (4 Bft) 93,62 %
07.11.2022 02:58 10,6 C 10,0 C 6,7 C 90 % 1009,9 hPa 0,0 l/m 0 min 0 min 0 W/m 25,7 km/h (4 Bft) 80,85 %
07.11.2022 03:00 10,6 C 10,0 C 6,7 C 91 % 1009,9 hPa 0,0 l/m 0 min 0 min 0 W/m 12,9 km/h (3 Bft) 58,06 %
07.11.2022 03:02 10,6 C 10,0 C 6,7 C 91 % 1010,0 hPa 0,0 l/m 0 min 0 min 0 W/m 29,0 km/h (5 Bft) 93,62 %
07.11.2022 03:04 10,6 C 10,0 C 6,7 C 91 % 1010,0 hPa 0,0 l/m 0 min 0 min 0 W/m 19,3 km/h (3 Bft) 95,24 %
07.11.2022 03:06 10,6 C 10,0 C 6,7 C 91 % 1010,0 hPa 0,0 l/m 0 min 0 min 0 W/m 22,5 km/h (4 Bft) 95,74 %
07.11.2022 03:08 10,6 C 10,0 C 6,7 C 91 % 1010,0 hPa 0,0 l/m 0 min 0 min 0 W/m 16,1 km/h (3 Bft) 93,62 %
07.11.2022 03:10 10,6 C 10,0 C 6,7 C 91 % 1010,1 hPa 0,0 l/m 0 min 0 min 0 W/m 19,3 km/h (3 Bft) 97,87 %
07.11.2022 03:12 10,6 C 10,0 C 6,7 C 91 % 1010,0 hPa 0,0 l/m 0 min 0 min 0 W/m 19,3 km/h (3 Bft) 95,65 %
07.11.2022 03:14 10,6 C 10,0 C 6,7 C 91 % 1010,0 hPa 0,0 l/m 0 min 0 min 0 W/m 19,3 km/h (3 Bft) 97,87 %
07.11.2022 03:16 10,6 C 10,0 C 6,7 C 91 % 1010,0 hPa 0,0 l/m 0 min 0 min 0 W/m 16,1 km/h (3 Bft) 85,11 %
07.11.2022 03:18 10,6 C 10,0 C 6,7 C 91 % 1009,9 hPa 0,0 l/m 0 min 0 min 0 W/m 29,0 km/h (5 Bft) 95,74 %
07.11.2022 03:20 10,6 C 10,0 C 6,7 C 91 % 1009,9 hPa 0,0 l/m 0 min 0 min 0 W/m 9,7 km/h (2 Bft) 95,74 %
07.11.2022 03:22 10,6 C 10,0 C 6,7 C 91 % 1009,9 hPa 0,0 l/m 0 min 0 min 0 W/m 12,9 km/h (3 Bft) 95,74 %
07.11.2022 03:24 10,6 C 10,0 C 6,7 C 91 % 1009,9 hPa 0,0 l/m 0 min 0 min 0 W/m 29,0 km/h (5 Bft) 93,48 %
07.11.2022 03:26 10,6 C 10,0 C 6,7 C 91 % 1009,9 hPa 0,0 l/m 0 min 0 min 0 W/m 16,1 km/h (3 Bft) 89,36 %
07.11.2022 03:28 10,6 C 10,0 C 6,7 C 91 % 1010,0 hPa 0,0 l/m 0 min 0 min 0 W/m 16,1 km/h (3 Bft) 91,49 %
07.11.2022 03:30 10,6 C 10,0 C 6,7 C 91 % 1010,0 hPa 0,0 l/m 0 min 0 min 0 W/m 22,5 km/h (4 Bft) 93,62 %
07.11.2022 03:32 10,6 C 9,4 C 6,7 C 91 % 1010,0 hPa 0,0 l/m 0 min 0 min 0 W/m 16,1 km/h (3 Bft) 95,74 %
07.11.2022 03:34 10,6 C 9,4 C 6,7 C 91 % 1010,0 hPa 0,0 l/m 0 min 0 min 0 W/m 16,1 km/h (3 Bft) 93,62 %
07.11.2022 03:36 10,6 C 10,0 C 6,7 C 91 % 1010,0 hPa 0,0 l/m 0 min 0 min 0 W/m 22,5 km/h (4 Bft) 95,65 %
07.11.2022 03:38 10,6 C 10,0 C 6,7 C 91 % 1010,0 hPa 0,0 l/m 0 min 0 min 0 W/m 12,9 km/h (3 Bft) 89,36 %
07.11.2022 03:40 10,6 C 10,0 C 6,7 C 91 % 1010,0 hPa 0,0 l/m 0 min 0 min 0 W/m 22,5 km/h (4 Bft) 91,49 %
07.11.2022 03:42 10,6 C 10,0 C 6,7 C 91 % 1010,0 hPa 0,0 l/m 0 min 0 min 0 W/m 16,1 km/h (3 Bft) 91,49 %
07.11.2022 03:44 10,6 C 10,0 C 6,7 C 91 % 1010,0 hPa 0,0 l/m 0 min 0 min 0 W/m 25,7 km/h (4 Bft) 91,49 %
07.11.2022 03:46 10,6 C 10,0 C 6,7 C 91 % 1010,0 hPa 0,0 l/m 0 min 0 min 0 W/m 16,1 km/h (3 Bft) 91,30 %
07.11.2022 03:48 10,6 C 10,0 C 6,7 C 91 % 1010,0 hPa 0,0 l/m 0 min 0 min 0 W/m 16,1 km/h (3 Bft) 93,62 %
07.11.2022 03:50 10,6 C 10,0 C 6,7 C 91 % 1010,0 hPa 0,0 l/m 0 min 0 min 0 W/m 12,9 km/h (3 Bft) 93,62 %
07.11.2022 03:52 10,6 C 10,0 C 6,7 C 91 % 1010,0 hPa 0,0 l/m 0 min 0 min 0 W/m 22,5 km/h (4 Bft) 93,62 %
07.11.2022 03:54 10,7 C 10,0 C 6,7 C 91 % 1010,0 hPa 0,0 l/m 0 min 0 min 0 W/m 16,1 km/h (3 Bft) 93,62 %
07.11.2022 03:56 10,7 C 10,0 C 6,7 C 91 % 1010,0 hPa 0,0 l/m 0 min 0 min 0 W/m 16,1 km/h (3 Bft) 95,74 %
07.11.2022 03:58 10,7 C 10,0 C 6,7 C 91 % 1010,0 hPa 0,0 l/m 0 min 0 min 0 W/m 16,1 km/h (3 Bft) 95,65 %
07.11.2022 04:00 10,7 C 10,0 C 6,7 C 91 % 1010,0 hPa 0,0 l/m 0 min 0 min 0 W/m 29,0 km/h (5 Bft) 95,74 %
07.11.2022 04:02 10,7 C 10,0 C 6,7 C 91 % 1010,1 hPa 0,0 l/m 0 min 0 min 0 W/m 16,1 km/h (3 Bft) 90,00 %
07.11.2022 04:04 10,7 C 10,0 C 6,7 C 91 % 1010,1 hPa 0,0 l/m 0 min 0 min 0 W/m 22,5 km/h (4 Bft) 93,88 %
07.11.2022 04:06 10,7 C 10,0 C 6,7 C 91 % 1010,1 hPa 0,0 l/m 0 min 0 min 0 W/m 22,5 km/h (4 Bft) 95,74 %
07.11.2022 04:08 10,7 C 10,0 C 6,7 C 91 % 1010,1 hPa 0,0 l/m 0 min 0 min 0 W/m 19,3 km/h (3 Bft) 95,74 %
07.11.2022 04:10 10,7 C 10,0 C 6,7 C 91 % 1010,1 hPa 0,0 l/m 0 min 0 min 0 W/m 22,5 km/h (4 Bft) 97,83 %
07.11.2022 04:12 10,7 C 10,0 C 6,7 C 91 % 1010,1 hPa 0,0 l/m 0 min 0 min 0 W/m 16,1 km/h (3 Bft) 95,74 %
07.11.2022 04:14 10,8 C 10,0 C 6,7 C 91 % 1010,1 hPa 0,0 l/m 0 min 0 min 0 W/m 22,5 km/h (4 Bft) 100,00 %
07.11.2022 04:16 10,8 C 10,0 C 6,7 C 91 % 1010,1 hPa 0,0 l/m 0 min 0 min 0 W/m 19,3 km/h (3 Bft) 97,87 %
07.11.2022 04:18 10,8 C 10,0 C 6,7 C 91 % 1010,1 hPa 0,0 l/m 0 min 0 min 0 W/m 16,1 km/h (3 Bft) 97,87 %
07.11.2022 04:20 10,8 C 10,0 C 6,7 C 91 % 1010,2 hPa 0,0 l/m 0 min 0 min 0 W/m 22,5 km/h (4 Bft) 91,49 %
07.11.2022 04:22 10,9 C 10,0 C 6,7 C 91 % 1010,1 hPa 0,0 l/m 0 min 0 min 0 W/m 25,7 km/h (4 Bft) 97,83 %
07.11.2022 04:24 10,9 C 10,0 C 6,7 C 91 % 1010,2 hPa 0,0 l/m 0 min 0 min 0 W/m 16,1 km/h (3 Bft) 100,00 %
07.11.2022 04:26 10,9 C 10,0 C 6,7 C 91 % 1010,2 hPa 0,0 l/m 0 min 0 min 0 W/m 16,1 km/h (3 Bft) 100,00 %
07.11.2022 04:28 10,9 C 10,0 C 6,7 C 91 % 1010,1 hPa 0,0 l/m 0 min 0 min 0 W/m 22,5 km/h (4 Bft) 100,00 %
07.11.2022 04:30 10,9 C 10,0 C 6,7 C 91 % 1010,2 hPa 0,0 l/m 0 min 0 min 0 W/m 19,3 km/h (3 Bft) 97,87 %
07.11.2022 04:32 10,9 C 10,0 C 6,7 C 91 % 1010,2 hPa 0,0 l/m 0 min 0 min 0 W/m 19,3 km/h (3 Bft) 97,87 %
07.11.2022 04:34 10,9 C 10,0 C 6,7 C 91 % 1010,2 hPa 0,0 l/m 0 min 0 min 0 W/m 19,3 km/h (3 Bft) 97,83 %
07.11.2022 04:36 10,9 C 10,0 C 6,7 C 91 % 1010,2 hPa 0,0 l/m 0 min 0 min 0 W/m 22,5 km/h (4 Bft) 100,00 %
07.11.2022 04:38 10,9 C 10,0 C 6,7 C 91 % 1010,2 hPa 0,0 l/m 0 min 0 min 0 W/m 16,1 km/h (3 Bft) 97,87 %
07.11.2022 04:40 10,9 C 10,0 C 6,7 C 91 % 1010,2 hPa 0,0 l/m 0 min 0 min 0 W/m 16,1 km/h (3 Bft) 98,11 %
07.11.2022 04:42 10,9 C 10,0 C 6,7 C 91 % 1010,3 hPa 0,0 l/m 0 min 0 min 0 W/m 19,3 km/h (3 Bft) 94,74 %
07.11.2022 04:44 10,9 C 10,0 C 6,7 C 91 % 1010,2 hPa 0,0 l/m 0 min 0 min 0 W/m 35,4 km/h (5 Bft) 97,87 %
07.11.2022 04:46 10,9 C 10,0 C 6,7 C 91 % 1010,2 hPa 0,0 l/m 0 min 0 min 0 W/m 22,5 km/h (4 Bft) 97,96 %
07.11.2022 04:48 10,9 C 10,0 C 6,7 C 91 % 1010,2 hPa 0,0 l/m 0 min 0 min 0 W/m 16,1 km/h (3 Bft) 100,00 %
07.11.2022 04:50 10,9 C 10,0 C 6,7 C 91 % 1010,3 hPa 0,0 l/m 0 min 0 min 0 W/m 12,9 km/h (3 Bft) 97,87 %
07.11.2022 04:52 10,9 C 10,0 C 6,7 C 91 % 1010,2 hPa 0,0 l/m 0 min 0 min 0 W/m 25,7 km/h (4 Bft) 100,00 %
07.11.2022 04:54 10,9 C 10,0 C 6,7 C 91 % 1010,2 hPa 0,0 l/m 0 min 0 min 0 W/m 22,5 km/h (4 Bft) 97,87 %
07.11.2022 04:56 10,9 C 10,0 C 6,7 C 91 % 1010,3 hPa 0,0 l/m 0 min 0 min 0 W/m 29,0 km/h (5 Bft) 91,49 %
07.11.2022 04:58 11,0 C 10,0 C 6,7 C 91 % 1010,3 hPa 0,0 l/m 0 min 0 min 0 W/m 16,1 km/h (3 Bft) 100,00 %
07.11.2022 05:00 11,0 C 10,0 C 6,7 C 91 % 1010,3 hPa 0,0 l/m 0 min 0 min 0 W/m 22,5 km/h (4 Bft) 100,00 %
07.11.2022 05:02 11,0 C 10,0 C 6,7 C 91 % 1010,3 hPa 0,0 l/m 0 min 0 min 0 W/m 22,5 km/h (4 Bft) 97,87 %
07.11.2022 05:04 11,0 C 10,0 C 6,7 C 91 % 1010,3 hPa 0,0 l/m 0 min 0 min 0 W/m 12,9 km/h (3 Bft) 100,00 %
07.11.2022 05:06 11,0 C 10,0 C 6,7 C 91 % 1010,3 hPa 0,0 l/m 0 min 0 min 0 W/m 16,1 km/h (3 Bft) 98,00 %
07.11.2022 05:08 11,0 C 10,0 C 6,7 C 91 % 1010,3 hPa 0,0 l/m 0 min 0 min 0 W/m 22,5 km/h (4 Bft) 97,87 %
07.11.2022 05:10 11,0 C 10,0 C 6,7 C 91 % 1010,3 hPa 0,0 l/m 0 min 0 min 0 W/m 32,2 km/h (5 Bft) 97,83 %
07.11.2022 05:12 11,0 C 10,0 C 6,7 C 91 % 1010,3 hPa 0,0 l/m 0 min 0 min 0 W/m 22,5 km/h (4 Bft) 98,11 %
07.11.2022 05:14 11,0 C 10,0 C 6,7 C 91 % 1010,3 hPa 0,0 l/m 0 min 0 min 0 W/m 16,1 km/h (3 Bft) 97,37 %
07.11.2022 05:16 11,0 C 10,0 C 6,7 C 90 % 1010,3 hPa 0,0 l/m 0 min 0 min 0 W/m 12,9 km/h (3 Bft) 97,87 %
07.11.2022 05:18 11,0 C 10,0 C 6,7 C 90 % 1010,4 hPa 0,0 l/m 0 min 0 min 0 W/m 19,3 km/h (3 Bft) 98,00 %
07.11.2022 05:20 11,0 C 10,0 C 6,7 C 91 % 1010,3 hPa 0,0 l/m 0 min 0 min 0 W/m 22,5 km/h (4 Bft) 91,49 %
07.11.2022 05:22 11,0 C 10,0 C 6,7 C 91 % 1010,4 hPa 0,0 l/m 0 min 0 min 0 W/m 19,3 km/h (3 Bft) 100,00 %
07.11.2022 05:24 11,0 C 10,0 C 6,7 C 90 % 1010,4 hPa 0,0 l/m 0 min 0 min 0 W/m 32,2 km/h (5 Bft) 97,87 %
07.11.2022 05:26 11,0 C 10,0 C 6,7 C 90 % 1010,4 hPa 0,0 l/m 0 min 0 min 0 W/m 19,3 km/h (3 Bft) 95,74 %
07.11.2022 05:28 11,0 C 10,0 C 6,7 C 90 % 1010,5 hPa 0,0 l/m 0 min 0 min 0 W/m 22,5 km/h (4 Bft) 97,87 %
07.11.2022 05:30 11,0 C 10,0 C 6,7 C 90 % 1010,4 hPa 0,0 l/m 0 min 0 min 0 W/m 22,5 km/h (4 Bft) 91,49 %
07.11.2022 05:32 10,9 C 10,0 C 6,7 C 90 % 1010,3 hPa 0,0 l/m 0 min 0 min 0 W/m 9,7 km/h (2 Bft) 97,83 %
07.11.2022 05:34 10,9 C 10,0 C 6,7 C 90 % 1010,4 hPa 0,0 l/m 0 min 0 min 0 W/m 19,3 km/h (3 Bft) 95,74 %
07.11.2022 05:36 10,9 C 10,0 C 6,7 C 90 % 1010,3 hPa 0,0 l/m 0 min 0 min 0 W/m 12,9 km/h (3 Bft) 97,87 %
07.11.2022 05:38 10,9 C 10,0 C 6,7 C 90 % 1010,3 hPa 0,0 l/m 0 min 0 min 0 W/m 19,3 km/h (3 Bft) 91,49 %
07.11.2022 05:40 10,9 C 10,0 C 6,7 C 90 % 1010,3 hPa 0,0 l/m 0 min 0 min 0 W/m 12,9 km/h (3 Bft) 97,87 %
07.11.2022 05:42 10,9 C 10,0 C 6,7 C 90 % 1010,3 hPa 0,0 l/m 0 min 0 min 0 W/m 16,1 km/h (3 Bft) 96,23 %
07.11.2022 05:44 10,8 C 10,0 C 6,7 C 90 % 1010,3 hPa 0,0 l/m 0 min 0 min 0 W/m 19,3 km/h (3 Bft) 94,74 %
07.11.2022 05:46 10,8 C 10,0 C 6,7 C 90 % 1010,3 hPa 0,0 l/m 0 min 0 min 0 W/m 12,9 km/h (3 Bft) 93,62 %
07.11.2022 05:48 10,8 C 10,0 C 6,7 C 90 % 1010,3 hPa 0,0 l/m 0 min 0 min 0 W/m 12,9 km/h (3 Bft) 97,96 %
07.11.2022 05:50 10,8 C 10,0 C 6,7 C 90 % 1010,4 hPa 0,0 l/m 0 min 0 min 0 W/m 12,9 km/h (3 Bft) 93,62 %
07.11.2022 05:52 10,8 C 10,0 C 6,7 C 90 % 1010,3 hPa 0,0 l/m 0 min 0 min 0 W/m 6,4 km/h (2 Bft) 95,74 %
07.11.2022 05:54 10,8 C 10,0 C 6,7 C 90 % 1010,3 hPa 0,0 l/m 0 min 0 min 0 W/m 12,9 km/h (3 Bft) 94,34 %
07.11.2022 05:56 10,7 C 9,4 C 6,7 C 90 % 1010,3 hPa 0,0 l/m 0 min 0 min 0 W/m 6,4 km/h (2 Bft) 97,37 %
07.11.2022 05:58 10,7 C 9,4 C 6,7 C 90 % 1010,3 hPa 0,0 l/m 0 min 0 min 0 W/m 6,4 km/h (2 Bft) 93,88 %
07.11.2022 06:00 10,7 C 9,4 C 6,7 C 90 % 1010,3 hPa 0,0 l/m 0 min 0 min 0 W/m 6,4 km/h (2 Bft) 95,74 %
07.11.2022 06:02 10,7 C 9,4 C 6,7 C 90 % 1010,3 hPa 0,0 l/m 0 min 0 min 0 W/m 16,1 km/h (3 Bft) 95,74 %
07.11.2022 06:04 10,7 C 9,4 C 6,1 C 90 % 1010,2 hPa 0,0 l/m 0 min 0 min 0 W/m 3,2 km/h (1 Bft) 96,00 %
07.11.2022 06:08 10,6 C 9,4 C 6,1 C 90 % 1010,2 hPa 0,0 l/m 0 min 0 min 0 W/m 16,1 km/h (3 Bft) 95,74 %
07.11.2022 06:10 10,6 C 9,4 C 6,1 C 91 % 1010,2 hPa 0,0 l/m 0 min 0 min 0 W/m 6,4 km/h (2 Bft) 97,87 %
07.11.2022 06:12 10,6 C 9,4 C 6,1 C 91 % 1010,2 hPa 0,0 l/m 0 min 0 min 0 W/m 6,4 km/h (2 Bft) 97,87 %
07.11.2022 06:15 10,5 C 9,4 C 6,1 C 91 % 1010,3 hPa 0,0 l/m 0 min 0 min 0 W/m 6,4 km/h (2 Bft) 97,14 %
07.11.2022 06:16 10,5 C 9,4 C 6,1 C 91 % 1010,3 hPa 0,0 l/m 0 min 0 min 0 W/m 6,4 km/h (2 Bft) 95,83 %
07.11.2022 06:18 10,4 C 9,4 C 6,1 C 91 % 1010,3 hPa 0,0 l/m 0 min 0 min 0 W/m 3,2 km/h (1 Bft) 93,62 %
07.11.2022 06:20 10,4 C 9,4 C 6,1 C 91 % 1010,3 hPa 0,0 l/m 0 min 0 min 0 W/m 12,9 km/h (3 Bft) 95,65 %
07.11.2022 06:22 10,4 C 9,4 C 6,1 C 91 % 1010,3 hPa 0,0 l/m 0 min 0 min 0 W/m 12,9 km/h (3 Bft) 93,62 %
07.11.2022 06:24 10,4 C 9,4 C 6,1 C 91 % 1010,3 hPa 0,0 l/m 0 min 0 min 0 W/m 12,9 km/h (3 Bft) 95,74 %
07.11.2022 06:26 10,3 C 9,4 C 6,1 C 91 % 1010,3 hPa 0,0 l/m 0 min 0 min 0 W/m 16,1 km/h (3 Bft) 93,62 %
07.11.2022 06:28 10,3 C 9,4 C 6,1 C 91 % 1010,3 hPa 0,0 l/m 0 min 0 min 0 W/m 6,4 km/h (2 Bft) 95,74 %
07.11.2022 06:30 10,3 C 9,4 C 6,1 C 91 % 1010,4 hPa 0,0 l/m 0 min 0 min 0 W/m 6,4 km/h (2 Bft) 97,83 %
07.11.2022 06:32 10,3 C 9,4 C 6,1 C 91 % 1010,4 hPa 0,0 l/m 0 min 0 min 0 W/m 12,9 km/h (3 Bft) 89,36 %
07.11.2022 06:34 10,3 C 9,4 C 6,1 C 91 % 1010,4 hPa 0,0 l/m 0 min 0 min 0 W/m 9,7 km/h (2 Bft) 72,34 %
07.11.2022 06:36 10,3 C 9,4 C 6,1 C 91 % 1010,4 hPa 0,0 l/m 0 min 0 min 0 W/m 6,4 km/h (2 Bft) 87,23 %
07.11.2022 06:38 10,3 C 9,4 C 6,1 C 91 % 1010,4 hPa 0,0 l/m 0 min 0 min 0 W/m 19,3 km/h (3 Bft) 91,49 %
07.11.2022 06:40 10,3 C 9,4 C 6,1 C 91 % 1010,4 hPa 0,0 l/m 0 min 0 min 0 W/m 12,9 km/h (3 Bft) 97,87 %
07.11.2022 06:42 10,3 C 9,4 C 6,1 C 91 % 1010,4 hPa 0,0 l/m 0 min 0 min 0 W/m 19,3 km/h (3 Bft) 97,83 %
07.11.2022 06:44 10,4 C 10,0 C 6,7 C 91 % 1010,4 hPa 0,0 l/m 0 min 0 min 0 W/m 16,1 km/h (3 Bft) 97,87 %
07.11.2022 06:46 10,4 C 10,0 C 6,7 C 91 % 1010,4 hPa 0,0 l/m 0 min 0 min 0 W/m 12,9 km/h (3 Bft) 95,74 %
07.11.2022 06:48 10,4 C 10,0 C 6,7 C 91 % 1010,3 hPa 0,0 l/m 0 min 0 min 0 W/m 9,7 km/h (2 Bft) 95,74 %
07.11.2022 06:50 10,4 C 10,0 C 6,7 C 91 % 1010,3 hPa 0,0 l/m 0 min 0 min 0 W/m 12,9 km/h (3 Bft) 95,74 %
07.11.2022 06:52 10,4 C 10,0 C 6,7 C 91 % 1010,4 hPa 0,0 l/m 0 min 0 min 0 W/m 22,5 km/h (4 Bft) 91,49 %
07.11.2022 06:54 10,5 C 10,0 C 6,7 C 91 % 1010,4 hPa 0,0 l/m 0 min 0 min 0 W/m 35,4 km/h (5 Bft) 95,65 %
07.11.2022 06:56 10,6 C 10,0 C 6,7 C 91 % 1010,4 hPa 0,0 l/m 0 min 0 min 0 W/m 9,7 km/h (2 Bft) 95,74 %
07.11.2022 06:58 10,6 C 10,0 C 6,7 C 91 % 1010,4 hPa 0,0 l/m 0 min 0 min 0 W/m 19,3 km/h (3 Bft) 97,87 %
07.11.2022 07:00 10,7 C 10,0 C 6,7 C 91 % 1010,4 hPa 0,0 l/m 0 min 0 min 0 W/m 19,3 km/h (3 Bft) 97,87 %
07.11.2022 07:02 10,7 C 10,6 C 6,7 C 91 % 1010,4 hPa 0,0 l/m 0 min 0 min 0 W/m 25,7 km/h (4 Bft) 97,87 %
07.11.2022 07:04 10,7 C 10,6 C 6,7 C 91 % 1010,4 hPa 0,0 l/m 0 min 0 min 0 W/m 19,3 km/h (3 Bft) 97,87 %
07.11.2022 07:06 10,8 C 10,6 C 6,7 C 91 % 1010,4 hPa 0,0 l/m 0 min 0 min 0 W/m 25,7 km/h (4 Bft) 95,74 %
07.11.2022 07:08 10,8 C 10,6 C 6,7 C 91 % 1010,4 hPa 0,2 l/m 0 min 0 min 0 W/m 22,5 km/h (4 Bft) 97,83 %
07.11.2022 07:10 10,9 C 10,6 C 6,7 C 91 % 1010,4 hPa 0,0 l/m 0 min 0 min 0 W/m 12,9 km/h (3 Bft) 97,87 %
07.11.2022 07:12 10,9 C 10,6 C 7,2 C 90 % 1010,5 hPa 0,0 l/m 0 min 0 min 0 W/m 19,3 km/h (3 Bft) 97,87 %
07.11.2022 07:14 11,0 C 10,6 C 7,2 C 90 % 1010,5 hPa 0,0 l/m 0 min 0 min 0 W/m 16,1 km/h (3 Bft) 100,00 %
07.11.2022 07:16 11,1 C 10,6 C 7,2 C 90 % 1010,5 hPa 0,0 l/m 0 min 0 min 0 W/m 16,1 km/h (3 Bft) 100,00 %
07.11.2022 07:18 11,1 C 10,6 C 7,2 C 90 % 1010,5 hPa 0,0 l/m 0 min 0 min 0 W/m 16,1 km/h (3 Bft) 100,00 %
07.11.2022 07:20 11,2 C 10,6 C 7,2 C 90 % 1010,5 hPa 0,0 l/m 0 min 0 min 0 W/m 22,5 km/h (4 Bft) 93,48 %
07.11.2022 07:22 11,2 C 10,6 C 7,2 C 90 % 1010,6 hPa 0,0 l/m 0 min 0 min 0 W/m 16,1 km/h (3 Bft) 95,74 %
07.11.2022 07:24 11,3 C 11,1 C 7,2 C 89 % 1010,6 hPa 0,0 l/m 0 min 0 min 0 W/m 22,5 km/h (4 Bft) 95,83 %
07.11.2022 07:26 11,4 C 11,1 C 7,2 C 89 % 1010,6 hPa 0,0 l/m 0 min 0 min 0 W/m 16,1 km/h (3 Bft) 97,87 %
07.11.2022 07:28 11,4 C 11,1 C 7,2 C 89 % 1010,6 hPa 0,0 l/m 0 min 0 min 0 W/m 16,1 km/h (3 Bft) 97,87 %
07.11.2022 07:30 11,4 C 11,1 C 7,2 C 89 % 1010,6 hPa 0,0 l/m 0 min 0 min 0 W/m 16,1 km/h (3 Bft) 97,83 %
07.11.2022 07:32 11,5 C 11,1 C 7,2 C 89 % 1010,6 hPa 0,0 l/m 0 min 0 min 0 W/m 19,3 km/h (3 Bft) 97,87 %
07.11.2022 07:34 11,5 C 11,1 C 7,2 C 89 % 1010,6 hPa 0,0 l/m 0 min 0 min 0 W/m 19,3 km/h (3 Bft) 95,74 %
07.11.2022 07:36 11,6 C 11,1 C 7,8 C 89 % 1010,6 hPa 0,0 l/m 0 min 0 min 0 W/m 22,5 km/h (4 Bft) 97,87 %
07.11.2022 07:38 11,6 C 11,1 C 7,8 C 88 % 1010,6 hPa 0,0 l/m 0 min 0 min 0 W/m 22,5 km/h (4 Bft) 97,87 %
07.11.2022 07:40 11,6 C 11,1 C 7,8 C 88 % 1010,6 hPa 0,0 l/m 0 min 0 min 0 W/m 19,3 km/h (3 Bft) 97,83 %
07.11.2022 07:42 11,6 C 11,1 C 7,8 C 88 % 1010,7 hPa 0,0 l/m 0 min 0 min 0 W/m 19,3 km/h (3 Bft) 95,74 %
07.11.2022 07:44 11,7 C 11,1 C 7,8 C 88 % 1010,6 hPa 0,0 l/m 0 min 0 min 0 W/m 25,7 km/h (4 Bft) 97,87 %
07.11.2022 07:46 11,7 C 11,1 C 7,8 C 88 % 1010,6 hPa 0,0 l/m 0 min 0 min 1 W/m 25,7 km/h (4 Bft) 97,87 %
07.11.2022 07:48 11,8 C 11,1 C 7,8 C 88 % 1010,6 hPa 0,0 l/m 0 min 0 min 5 W/m 16,1 km/h (3 Bft) 95,74 %
07.11.2022 07:50 11,8 C 11,1 C 7,8 C 88 % 1010,6 hPa 0,0 l/m 0 min 0 min 6 W/m 19,3 km/h (3 Bft) 93,62 %
07.11.2022 07:52 11,8 C 11,1 C 7,8 C 88 % 1010,6 hPa 0,0 l/m 0 min 0 min 7 W/m 19,3 km/h (3 Bft) 97,83 %
07.11.2022 07:54 11,8 C 11,1 C 7,8 C 88 % 1010,6 hPa 0,0 l/m 0 min 0 min 8 W/m 25,7 km/h (4 Bft) 93,62 %
07.11.2022 07:56 11,8 C 11,1 C 7,8 C 88 % 1010,6 hPa 0,0 l/m 0 min 0 min 9 W/m 19,3 km/h (3 Bft) 95,74 %
07.11.2022 07:58 11,8 C 11,1 C 7,8 C 88 % 1010,7 hPa 0,0 l/m 0 min 0 min 11 W/m 16,1 km/h (3 Bft) 95,74 %
07.11.2022 08:00 11,8 C 11,1 C 7,8 C 88 % 1010,6 hPa 0,0 l/m 0 min 0 min 12 W/m 29,0 km/h (5 Bft) 97,87 %
07.11.2022 08:02 11,9 C 11,1 C 7,8 C 88 % 1010,7 hPa 0,0 l/m 0 min 0 min 13 W/m 29,0 km/h (5 Bft) 97,87 %
07.11.2022 08:04 11,9 C 11,1 C 7,8 C 88 % 1010,6 hPa 0,0 l/m 0 min 0 min 17 W/m 19,3 km/h (3 Bft) 100,00 %
07.11.2022 08:06 11,9 C 11,1 C 7,8 C 88 % 1010,7 hPa 0,0 l/m 0 min 0 min 21 W/m 25,7 km/h (4 Bft) 100,00 %
07.11.2022 08:08 11,9 C 11,1 C 7,8 C 88 % 1010,7 hPa 0,0 l/m 0 min 0 min 25 W/m 22,5 km/h (4 Bft) 100,00 %
07.11.2022 08:10 11,9 C 11,7 C 7,8 C 88 % 1010,8 hPa 0,0 l/m 0 min 0 min 23 W/m 12,9 km/h (3 Bft) 100,00 %
07.11.2022 08:12 12,0 C 11,7 C 7,8 C 88 % 1010,7 hPa 0,0 l/m 0 min 0 min 21 W/m 35,4 km/h (5 Bft) 97,87 %
07.11.2022 08:14 12,0 C 11,7 C 7,8 C 87 % 1010,8 hPa 0,0 l/m 0 min 0 min 21 W/m 19,3 km/h (3 Bft) 97,87 %
07.11.2022 08:16 12,0 C 11,7 C 7,8 C 87 % 1010,7 hPa 0,0 l/m 0 min 0 min 24 W/m 19,3 km/h (3 Bft) 100,00 %
07.11.2022 08:18 12,1 C 11,7 C 7,8 C 87 % 1010,8 hPa 0,0 l/m 0 min 0 min 30 W/m 35,4 km/h (5 Bft) 100,00 %
07.11.2022 08:20 12,1 C 11,7 C 7,8 C 87 % 1010,8 hPa 0,0 l/m 0 min 0 min 36 W/m 32,2 km/h (5 Bft) 100,00 %
07.11.2022 08:22 12,1 C 11,7 C 7,8 C 87 % 1010,8 hPa 0,0 l/m 0 min 0 min 39 W/m 19,3 km/h (3 Bft) 97,87 %
07.11.2022 08:24 12,1 C 11,7 C 7,8 C 87 % 1010,9 hPa 0,0 l/m 0 min 0 min 37 W/m 25,7 km/h (4 Bft) 100,00 %
07.11.2022 08:26 12,2 C 11,7 C 7,8 C 87 % 1011,0 hPa 0,0 l/m 0 min 0 min 35 W/m 38,6 km/h (5 Bft) 100,00 %
07.11.2022 08:28 12,2 C 11,7 C 8,3 C 87 % 1010,9 hPa 0,0 l/m 0 min 0 min 39 W/m 25,7 km/h (4 Bft) 100,00 %
07.11.2022 08:30 12,2 C 11,7 C 8,3 C 87 % 1010,9 hPa 0,0 l/m 0 min 0 min 35 W/m 22,5 km/h (4 Bft) 100,00 %
07.11.2022 08:32 12,3 C 11,7 C 8,3 C 87 % 1011,0 hPa 0,0 l/m 0 min 0 min 35 W/m 25,7 km/h (4 Bft) 97,87 %
07.11.2022 08:34 12,3 C 11,7 C 8,3 C 87 % 1010,9 hPa 0,0 l/m 0 min 0 min 35 W/m 25,7 km/h (4 Bft) 97,87 %
07.11.2022 08:36 12,3 C 11,7 C 8,3 C 87 % 1011,0 hPa 0,0 l/m 0 min 0 min 39 W/m 32,2 km/h (5 Bft) 97,87 %
07.11.2022 08:39 12,3 C 11,7 C 8,3 C 87 % 1011,1 hPa 0,0 l/m 0 min 0 min 38 W/m 29,0 km/h (5 Bft) 95,71 %
07.11.2022 08:40 12,3 C 11,7 C 8,3 C 87 % 1011,1 hPa 0,0 l/m 0 min 0 min 40 W/m 29,0 km/h (5 Bft) 100,00 %
07.11.2022 08:42 12,4 C 11,7 C 8,3 C 87 % 1011,1 hPa 0,0 l/m 0 min 0 min 40 W/m 29,0 km/h (5 Bft) 95,74 %
07.11.2022 08:44 12,4 C 11,7 C 8,3 C 87 % 1011,2 hPa 0,0 l/m 0 min 0 min 40 W/m 19,3 km/h (3 Bft) 97,87 %
07.11.2022 08:47 12,4 C 12,2 C 8,3 C 87 % 1011,2 hPa 0,0 l/m 0 min 0 min 39 W/m 25,7 km/h (4 Bft) 97,14 %
07.11.2022 08:48 12,5 C 12,2 C 8,3 C 87 % 1011,2 hPa 0,0 l/m 0 min 0 min 40 W/m 22,5 km/h (4 Bft) 100,00 %
07.11.2022 08:50 12,5 C 12,2 C 8,3 C 87 % 1011,2 hPa 0,0 l/m 0 min 0 min 41 W/m 19,3 km/h (3 Bft) 97,87 %
07.11.2022 08:52 12,6 C 12,2 C 8,3 C 87 % 1011,2 hPa 0,0 l/m 0 min 0 min 35 W/m 29,0 km/h (5 Bft) 95,65 %
07.11.2022 08:54 12,6 C 12,2 C 8,3 C 87 % 1011,2 hPa 0,0 l/m 0 min 0 min 28 W/m 32,2 km/h (5 Bft) 97,87 %
07.11.2022 08:56 12,6 C 12,2 C 8,3 C 87 % 1011,2 hPa 0,0 l/m 0 min 0 min 33 W/m 22,5 km/h (4 Bft) 97,87 %
07.11.2022 08:58 12,6 C 12,2 C 8,3 C 87 % 1011,2 hPa 0,0 l/m 0 min 0 min 41 W/m 32,2 km/h (5 Bft) 97,87 %
07.11.2022 09:00 12,7 C 12,2 C 8,3 C 87 % 1011,2 hPa 0,0 l/m 0 min 0 min 47 W/m 25,7 km/h (4 Bft) 97,87 %
07.11.2022 09:02 12,7 C 12,2 C 8,3 C 87 % 1011,2 hPa 0,0 l/m 0 min 0 min 43 W/m 25,7 km/h (4 Bft) 97,83 %
07.11.2022 09:04 12,7 C 12,2 C 8,3 C 87 % 1011,3 hPa 0,0 l/m 0 min 0 min 44 W/m 19,3 km/h (3 Bft) 97,87 %
07.11.2022 09:06 12,7 C 12,2 C 8,9 C 87 % 1011,3 hPa 0,0 l/m 0 min 0 min 45 W/m 22,5 km/h (4 Bft) 97,87 %
07.11.2022 09:08 12,8 C 12,2 C 8,9 C 87 % 1011,2 hPa 0,0 l/m 0 min 0 min 42 W/m 22,5 km/h (4 Bft) 95,74 %
07.11.2022 09:10 12,8 C 12,2 C 8,9 C 87 % 1011,4 hPa 0,0 l/m 0 min 0 min 38 W/m 22,5 km/h (4 Bft) 93,62 %
07.11.2022 09:12 12,8 C 12,2 C 8,9 C 87 % 1011,3 hPa 0,0 l/m 0 min 0 min 34 W/m 32,2 km/h (5 Bft) 95,74 %
07.11.2022 09:14 12,8 C 12,2 C 8,9 C 87 % 1011,4 hPa 0,0 l/m 0 min 0 min 31 W/m 22,5 km/h (4 Bft) 95,74 %
07.11.2022 09:16 12,9 C 12,2 C 8,9 C 87 % 1011,4 hPa 0,0 l/m 0 min 0 min 29 W/m 19,3 km/h (3 Bft) 95,65 %
07.11.2022 09:18 12,9 C 12,2 C 8,9 C 87 % 1011,4 hPa 0,0 l/m 0 min 0 min 31 W/m 19,3 km/h (3 Bft) 95,74 %
07.11.2022 09:20 12,9 C 12,2 C 8,9 C 87 % 1011,4 hPa 0,0 l/m 0 min 0 min 34 W/m 29,0 km/h (5 Bft) 97,87 %
07.11.2022 09:23 12,9 C 12,2 C 8,9 C 86 % 1011,4 hPa 0,0 l/m 0 min 0 min 38 W/m 25,7 km/h (4 Bft) 94,29 %
07.11.2022 09:24 12,9 C 12,2 C 8,9 C 86 % 1011,4 hPa 0,0 l/m 0 min 0 min 39 W/m 22,5 km/h (4 Bft) 100,00 %
07.11.2022 09:28 13,0 C 12,2 C 8,9 C 86 % 1011,5 hPa 0,0 l/m 0 min 0 min 46 W/m 29,0 km/h (5 Bft) 96,77 %
07.11.2022 09:29 13,0 C 12,2 C 8,9 C 86 % 1011,4 hPa 0,0 l/m 0 min 0 min 51 W/m 19,3 km/h (3 Bft) 95,83 %
07.11.2022 09:30 13,0 C 12,2 C 8,9 C 86 % 1011,4 hPa 0,0 l/m 0 min 0 min 50 W/m 29,0 km/h (5 Bft) 99,12 %
07.11.2022 09:34 13,1 C 12,8 C 8,9 C 86 % 1011,3 hPa 0,0 l/m 0 min 0 min 59 W/m 29,0 km/h (5 Bft) 94,00 %
07.11.2022 09:36 13,1 C 12,8 C 8,9 C 86 % 1011,4 hPa 0,0 l/m 0 min 0 min 61 W/m 25,7 km/h (4 Bft) 94,92 %
07.11.2022 09:38 13,1 C 12,8 C 8,9 C 86 % 1011,4 hPa 0,0 l/m 0 min 0 min 64 W/m 22,5 km/h (4 Bft) 97,14 %
07.11.2022 09:40 13,2 C 12,8 C 8,9 C 86 % 1011,5 hPa 0,0 l/m 0 min 0 min 61 W/m 16,1 km/h (3 Bft) 95,65 %
07.11.2022 09:42 13,2 C 12,8 C 8,9 C 86 % 1011,5 hPa 0,0 l/m 0 min 0 min 54 W/m 25,7 km/h (4 Bft) 95,74 %
07.11.2022 09:44 13,2 C 12,8 C 8,9 C 86 % 1011,5 hPa 0,0 l/m 0 min 0 min 58 W/m 19,3 km/h (3 Bft) 95,74 %
07.11.2022 09:46 13,2 C 12,8 C 8,9 C 86 % 1011,5 hPa 0,0 l/m 0 min 0 min 71 W/m 16,1 km/h (3 Bft) 91,49 %
07.11.2022 09:48 13,2 C 12,8 C 8,9 C 86 % 1011,5 hPa 0,0 l/m 0 min 0 min 71 W/m 19,3 km/h (3 Bft) 95,74 %
07.11.2022 09:50 13,3 C 12,8 C 8,9 C 86 % 1011,5 hPa 0,0 l/m 0 min 0 min 66 W/m 19,3 km/h (3 Bft) 94,34 %
07.11.2022 09:52 13,3 C 12,8 C 9,4 C 86 % 1011,5 hPa 0,0 l/m 0 min 0 min 66 W/m 25,7 km/h (4 Bft) 95,74 %
07.11.2022 09:54 13,3 C 12,8 C 9,4 C 86 % 1011,4 hPa 0,0 l/m 0 min 0 min 77 W/m 41,8 km/h (6 Bft) 97,87 %
07.11.2022 09:56 13,3 C 12,8 C 9,4 C 86 % 1011,5 hPa 0,0 l/m 0 min 0 min 97 W/m 29,0 km/h (5 Bft) 97,87 %
07.11.2022 09:58 13,4 C 13,3 C 9,4 C 86 % 1011,5 hPa 0,0 l/m 0 min 0 min 113 W/m 35,4 km/h (5 Bft) 97,87 %
07.11.2022 10:00 13,4 C 13,3 C 9,4 C 85 % 1011,6 hPa 0,0 l/m 0 min 0 min 108 W/m 19,3 km/h (3 Bft) 97,87 %
07.11.2022 10:02 13,5 C 13,3 C 9,4 C 85 % 1011,6 hPa 0,0 l/m 0 min 0 min 106 W/m 22,5 km/h (4 Bft) 95,65 %
07.11.2022 10:04 13,5 C 13,3 C 9,4 C 85 % 1011,6 hPa 0,0 l/m 0 min 0 min 110 W/m 22,5 km/h (4 Bft) 100,00 %
07.11.2022 10:06 13,6 C 13,3 C 9,4 C 85 % 1011,5 hPa 0,0 l/m 0 min 0 min 104 W/m 22,5 km/h (4 Bft) 97,87 %
07.11.2022 10:08 13,6 C 13,3 C 9,4 C 85 % 1011,6 hPa 0,0 l/m 0 min 0 min 108 W/m 25,7 km/h (4 Bft) 100,00 %
07.11.2022 10:10 13,6 C 13,3 C 9,4 C 85 % 1011,6 hPa 0,0 l/m 0 min 0 min 109 W/m 22,5 km/h (4 Bft) 100,00 %
07.11.2022 10:12 13,6 C 13,3 C 9,4 C 85 % 1011,6 hPa 0,0 l/m 0 min 0 min 98 W/m 22,5 km/h (4 Bft) 100,00 %
07.11.2022 10:14 13,7 C 13,3 C 9,4 C 85 % 1011,5 hPa 0,0 l/m 0 min 0 min 103 W/m 22,5 km/h (4 Bft) 97,83 %
07.11.2022 10:16 13,7 C 13,3 C 9,4 C 85 % 1011,6 hPa 0,0 l/m 0 min 0 min 112 W/m 22,5 km/h (4 Bft) 97,87 %
07.11.2022 10:18 13,7 C 13,3 C 9,4 C 85 % 1011,6 hPa 0,0 l/m 0 min 0 min 99 W/m 16,1 km/h (3 Bft) 100,00 %
07.11.2022 10:20 13,7 C 13,3 C 9,4 C 85 % 1011,7 hPa 0,0 l/m 0 min 0 min 102 W/m 22,5 km/h (4 Bft) 100,00 %
07.11.2022 10:22 13,7 C 13,3 C 9,4 C 85 % 1011,7 hPa 0,0 l/m 0 min 0 min 81 W/m 35,4 km/h (5 Bft) 100,00 %
07.11.2022 10:24 13,7 C 13,3 C 9,4 C 85 % 1011,7 hPa 0,0 l/m 0 min 0 min 75 W/m 19,3 km/h (3 Bft) 100,00 %
07.11.2022 10:26 13,7 C 13,3 C 9,4 C 85 % 1011,8 hPa 0,0 l/m 0 min 0 min 88 W/m 32,2 km/h (5 Bft) 100,00 %
07.11.2022 10:28 13,7 C 13,3 C 9,4 C 85 % 1011,8 hPa 0,0 l/m 0 min 0 min 82 W/m 35,4 km/h (5 Bft) 100,00 %
07.11.2022 10:30 13,7 C 12,8 C 9,4 C 85 % 1011,8 hPa 0,0 l/m 0 min 0 min 56 W/m 35,4 km/h (5 Bft) 100,00 %
07.11.2022 10:32 13,7 C 12,8 C 9,4 C 86 % 1011,9 hPa 0,0 l/m 0 min 0 min 47 W/m 29,0 km/h (5 Bft) 100,00 %
07.11.2022 10:34 13,7 C 12,8 C 9,4 C 86 % 1011,8 hPa 0,0 l/m 0 min 0 min 50 W/m 48,3 km/h (6 Bft) 100,00 %
07.11.2022 10:36 13,6 C 12,8 C 9,4 C 86 % 1011,9 hPa 0,0 l/m 0 min 0 min 41 W/m 41,8 km/h (6 Bft) 100,00 %
07.11.2022 10:38 13,6 C 12,8 C 8,9 C 87 % 1012,0 hPa 0,0 l/m 0 min 0 min 50 W/m 29,0 km/h (5 Bft) 97,87 %
07.11.2022 10:40 13,5 C 12,8 C 8,9 C 87 % 1011,9 hPa 0,0 l/m 0 min 0 min 45 W/m 38,6 km/h (5 Bft) 100,00 %
07.11.2022 10:42 13,4 C 12,8 C 8,9 C 87 % 1012,0 hPa 0,0 l/m 0 min 0 min 37 W/m 38,6 km/h (5 Bft) 100,00 %
07.11.2022 10:44 13,4 C 12,8 C 8,9 C 87 % 1012,0 hPa 0,0 l/m 0 min 0 min 41 W/m 25,7 km/h (4 Bft) 100,00 %
07.11.2022 10:46 13,3 C 12,8 C 8,9 C 88 % 1012,0 hPa 0,0 l/m 0 min 0 min 33 W/m 29,0 km/h (5 Bft) 100,00 %
07.11.2022 10:48 13,3 C 12,2 C 8,9 C 88 % 1012,1 hPa 0,0 l/m 0 min 0 min 36 W/m 25,7 km/h (4 Bft) 100,00 %
07.11.2022 10:50 13,3 C 12,2 C 8,9 C 88 % 1012,1 hPa 0,0 l/m 0 min 0 min 47 W/m 19,3 km/h (3 Bft) 100,00 %
07.11.2022 10:52 13,2 C 12,2 C 8,9 C 88 % 1012,1 hPa 0,0 l/m 0 min 0 min 56 W/m 32,2 km/h (5 Bft) 100,00 %
07.11.2022 10:54 13,2 C 12,2 C 8,9 C 89 % 1012,1 hPa 0,0 l/m 0 min 0 min 73 W/m 25,7 km/h (4 Bft) 100,00 %
07.11.2022 10:56 13,2 C 12,2 C 8,9 C 89 % 1012,2 hPa 0,0 l/m 0 min 0 min 71 W/m 35,4 km/h (5 Bft) 100,00 %
07.11.2022 10:58 13,2 C 12,2 C 8,9 C 89 % 1012,1 hPa 0,0 l/m 0 min 0 min 66 W/m 19,3 km/h (3 Bft) 100,00 %
07.11.2022 11:00 13,1 C 12,2 C 8,9 C 90 % 1012,2 hPa 0,0 l/m 0 min 0 min 80 W/m 32,2 km/h (5 Bft) 100,00 %
07.11.2022 11:02 13,1 C 12,2 C 8,9 C 90 % 1012,2 hPa 0,0 l/m 0 min 0 min 90 W/m 19,3 km/h (3 Bft) 100,00 %
07.11.2022 11:05 13,1 C 12,8 C 8,9 C 90 % 1012,1 hPa 0,0 l/m 0 min 0 min 103 W/m 19,3 km/h (3 Bft) 100,00 %
07.11.2022 11:06 13,1 C 12,8 C 8,9 C 90 % 1012,1 hPa 0,0 l/m 0 min 0 min 103 W/m 25,7 km/h (4 Bft) 100,00 %
07.11.2022 11:08 13,1 C 12,8 C 8,9 C 90 % 1012,1 hPa 0,0 l/m 0 min 0 min 104 W/m 29,0 km/h (5 Bft) 100,00 %
07.11.2022 11:10 13,1 C 12,8 C 8,9 C 90 % 1012,2 hPa 0,0 l/m 0 min 0 min 104 W/m 22,5 km/h (4 Bft) 97,87 %
07.11.2022 11:12 13,1 C 12,8 C 8,9 C 90 % 1012,1 hPa 0,0 l/m 0 min 0 min 94 W/m 25,7 km/h (4 Bft) 97,87 %
07.11.2022 11:14 13,1 C 12,8 C 8,9 C 90 % 1012,2 hPa 0,0 l/m 0 min 0 min 106 W/m 19,3 km/h (3 Bft) 100,00 %
07.11.2022 11:16 13,1 C 12,8 C 9,4 C 90 % 1012,2 hPa 0,0 l/m 0 min 0 min 113 W/m 29,0 km/h (5 Bft) 100,00 %
07.11.2022 11:18 13,1 C 12,8 C 9,4 C 91 % 1012,2 hPa 0,0 l/m 0 min 0 min 112 W/m 29,0 km/h (5 Bft) 97,87 %
07.11.2022 11:20 13,2 C 12,8 C 9,4 C 91 % 1012,2 hPa 0,0 l/m 0 min 0 min 114 W/m 19,3 km/h (3 Bft) 100,00 %
07.11.2022 11:22 13,2 C 12,8 C 9,4 C 91 % 1012,2 hPa 0,0 l/m 0 min 0 min 108 W/m 19,3 km/h (3 Bft) 100,00 %
07.11.2022 11:24 13,2 C 12,8 C 9,4 C 91 % 1012,2 hPa 0,0 l/m 0 min 0 min 93 W/m 25,7 km/h (4 Bft) 100,00 %
07.11.2022 11:26 13,2 C 12,8 C 9,4 C 91 % 1012,2 hPa 0,0 l/m 0 min 0 min 90 W/m 22,5 km/h (4 Bft) 100,00 %
07.11.2022 11:28 13,2 C 12,8 C 9,4 C 91 % 1012,2 hPa 0,0 l/m 0 min 0 min 90 W/m 29,0 km/h (5 Bft) 97,87 %
07.11.2022 11:30 13,2 C 12,8 C 9,4 C 91 % 1012,2 hPa 0,0 l/m 0 min 0 min 87 W/m 25,7 km/h (4 Bft) 95,74 %
07.11.2022 11:32 13,2 C 12,8 C 9,4 C 91 % 1012,2 hPa 0,0 l/m 0 min 0 min 84 W/m 16,1 km/h (3 Bft) 93,62 %
07.11.2022 11:34 13,3 C 12,8 C 9,4 C 90 % 1012,2 hPa 0,0 l/m 0 min 0 min 78 W/m 19,3 km/h (3 Bft) 95,74 %
07.11.2022 11:36 13,3 C 12,8 C 9,4 C 90 % 1012,2 hPa 0,0 l/m 0 min 0 min 76 W/m 35,4 km/h (5 Bft) 93,48 %
07.11.2022 11:38 13,3 C 12,8 C 9,4 C 90 % 1012,2 hPa 0,0 l/m 0 min 0 min 77 W/m 32,2 km/h (5 Bft) 95,74 %
07.11.2022 11:40 13,3 C 12,8 C 9,4 C 90 % 1012,2 hPa 0,0 l/m 0 min 0 min 101 W/m 25,7 km/h (4 Bft) 95,74 %
07.11.2022 11:42 13,4 C 12,8 C 9,4 C 90 % 1012,1 hPa 0,0 l/m 0 min 0 min 108 W/m 22,5 km/h (4 Bft) 95,74 %
07.11.2022 11:44 13,4 C 13,3 C 9,4 C 89 % 1012,1 hPa 0,0 l/m 0 min 0 min 111 W/m 16,1 km/h (3 Bft) 93,62 %
07.11.2022 11:46 13,4 C 13,3 C 9,4 C 89 % 1012,2 hPa 0,0 l/m 0 min 0 min 147 W/m 22,5 km/h (4 Bft) 95,74 %
07.11.2022 11:48 13,5 C 13,3 C 10,0 C 90 % 1012,2 hPa 0,0 l/m 0 min 0 min 165 W/m 25,7 km/h (4 Bft) 93,62 %
07.11.2022 11:50 13,6 C 13,9 C 10,0 C 89 % 1012,1 hPa 0,0 l/m 0 min 0 min 164 W/m 25,7 km/h (4 Bft) 91,30 %
07.11.2022 11:52 13,6 C 13,9 C 10,0 C 89 % 1012,1 hPa 0,0 l/m 0 min 0 min 164 W/m 32,2 km/h (5 Bft) 93,62 %
07.11.2022 11:54 13,7 C 13,9 C 10,0 C 89 % 1012,2 hPa 0,0 l/m 0 min 0 min 159 W/m 25,7 km/h (4 Bft) 93,62 %
07.11.2022 11:56 13,8 C 13,9 C 10,0 C 89 % 1012,2 hPa 0,0 l/m 0 min 0 min 163 W/m 29,0 km/h (5 Bft) 93,62 %
07.11.2022 11:59 13,8 C 13,9 C 10,0 C 88 % 1012,1 hPa 0,0 l/m 0 min 0 min 158 W/m 25,7 km/h (4 Bft) 92,86 %
07.11.2022 12:00 13,9 C 13,9 C 10,0 C 88 % 1012,1 hPa 0,0 l/m 0 min 0 min 167 W/m 29,0 km/h (5 Bft) 91,30 %
07.11.2022 12:02 13,9 C 13,9 C 10,0 C 88 % 1012,1 hPa 0,0 l/m 0 min 0 min 178 W/m 25,7 km/h (4 Bft) 93,62 %
07.11.2022 12:04 14,0 C 13,9 C 10,0 C 88 % 1012,2 hPa 0,0 l/m 0 min 0 min 171 W/m 19,3 km/h (3 Bft) 93,62 %
07.11.2022 12:08 14,0 C 13,9 C 10,0 C 87 % 1012,2 hPa 0,0 l/m 0 min 0 min 153 W/m 22,5 km/h (4 Bft) 65,71 %
07.11.2022 12:11 14,1 C 13,9 C 10,0 C 87 % 1012,2 hPa 0,0 l/m 0 min 0 min 115 W/m 25,7 km/h (4 Bft) 96,49 %
07.11.2022 12:12 14,1 C 13,9 C 10,0 C 87 % 1012,2 hPa 0,0 l/m 0 min 0 min 111 W/m 25,7 km/h (4 Bft) 92,31 %
07.11.2022 12:14 14,1 C 13,9 C 10,0 C 87 % 1012,2 hPa 0,0 l/m 0 min 0 min 140 W/m 32,2 km/h (5 Bft) 93,62 %
07.11.2022 12:16 14,1 C 13,9 C 10,0 C 87 % 1012,2 hPa 0,0 l/m 0 min 0 min 124 W/m 32,2 km/h (5 Bft) 95,74 %
07.11.2022 12:18 14,2 C 13,9 C 10,0 C 86 % 1012,2 hPa 0,0 l/m 0 min 0 min 105 W/m 19,3 km/h (3 Bft) 95,74 %
07.11.2022 12:20 14,2 C 13,9 C 10,0 C 86 % 1012,2 hPa 0,0 l/m 0 min 0 min 88 W/m 22,5 km/h (4 Bft) 93,48 %
07.11.2022 12:22 14,2 C 13,9 C 10,0 C 86 % 1012,3 hPa 0,0 l/m 0 min 0 min 76 W/m 29,0 km/h (5 Bft) 97,87 %
07.11.2022 12:24 14,2 C 13,9 C 10,0 C 86 % 1012,2 hPa 0,0 l/m 0 min 0 min 66 W/m 19,3 km/h (3 Bft) 97,87 %
07.11.2022 12:26 14,2 C 13,3 C 10,0 C 86 % 1012,2 hPa 0,0 l/m 0 min 0 min 65 W/m 25,7 km/h (4 Bft) 97,87 %
07.11.2022 12:28 14,2 C 13,3 C 10,0 C 86 % 1012,2 hPa 0,0 l/m 0 min 0 min 55 W/m 22,5 km/h (4 Bft) 95,74 %
07.11.2022 12:30 14,2 C 13,3 C 10,0 C 86 % 1012,2 hPa 0,0 l/m 0 min 0 min 50 W/m 22,5 km/h (4 Bft) 100,00 %
07.11.2022 12:32 14,2 C 13,3 C 10,0 C 86 % 1012,2 hPa 0,0 l/m 0 min 0 min 53 W/m 35,4 km/h (5 Bft) 100,00 %
07.11.2022 12:34 14,1 C 13,3 C 10,0 C 86 % 1012,2 hPa 0,0 l/m 0 min 0 min 68 W/m 38,6 km/h (5 Bft) 97,87 %
07.11.2022 12:36 14,1 C 13,3 C 10,0 C 86 % 1012,2 hPa 0,0 l/m 0 min 0 min 81 W/m 25,7 km/h (4 Bft) 100,00 %
07.11.2022 12:38 14,2 C 13,3 C 10,0 C 86 % 1012,2 hPa 0,0 l/m 0 min 0 min 65 W/m 25,7 km/h (4 Bft) 100,00 %
07.11.2022 12:41 14,2 C 13,3 C 10,0 C 85 % 1012,1 hPa 0,0 l/m 0 min 0 min 45 W/m 32,2 km/h (5 Bft) 100,00 %
07.11.2022 12:42 14,1 C 13,3 C 10,0 C 85 % 1012,1 hPa 0,0 l/m 0 min 0 min 58 W/m 22,5 km/h (4 Bft) 92,31 %
07.11.2022 12:44 14,2 C 13,3 C 10,0 C 85 % 1012,1 hPa 0,0 l/m 0 min 0 min 72 W/m 25,7 km/h (4 Bft) 100,00 %
07.11.2022 12:46 14,2 C 13,9 C 10,0 C 85 % 1012,1 hPa 0,0 l/m 0 min 0 min 85 W/m 19,3 km/h (3 Bft) 100,00 %
07.11.2022 12:48 14,2 C 13,9 C 10,0 C 85 % 1012,1 hPa 0,0 l/m 0 min 0 min 144 W/m 32,2 km/h (5 Bft) 97,83 %
07.11.2022 12:50 14,3 C 13,9 C 10,0 C 85 % 1012,0 hPa 0,0 l/m 0 min 0 min 150 W/m 19,3 km/h (3 Bft) 100,00 %
07.11.2022 12:52 14,3 C 14,4 C 10,6 C 85 % 1012,1 hPa 0,0 l/m 0 min 0 min 149 W/m 25,7 km/h (4 Bft) 100,00 %
07.11.2022 12:54 14,3 C 14,4 C 10,6 C 85 % 1012,0 hPa 0,0 l/m 0 min 0 min 159 W/m 25,7 km/h (4 Bft) 97,87 %
07.11.2022 12:56 14,3 C 14,4 C 10,6 C 84 % 1012,0 hPa 0,0 l/m 0 min 0 min 166 W/m 22,5 km/h (4 Bft) 100,00 %
07.11.2022 12:58 14,4 C 14,4 C 10,6 C 84 % 1012,0 hPa 0,0 l/m 0 min 0 min 165 W/m 25,7 km/h (4 Bft) 100,00 %
07.11.2022 13:00 14,4 C 14,4 C 10,6 C 84 % 1012,0 hPa 0,0 l/m 0 min 0 min 173 W/m 29,0 km/h (5 Bft) 100,00 %
07.11.2022 13:03 14,6 C 14,4 C 10,6 C 83 % 1012,0 hPa 0,0 l/m 3 min 0 min 185 W/m 32,2 km/h (5 Bft) 100,00 %
07.11.2022 13:04 14,6 C 15,0 C 10,6 C 83 % 1012,0 hPa 0,0 l/m 0 min 0 min 179 W/m 16,1 km/h (3 Bft) 100,00 %
07.11.2022 13:08 14,7 C 14,4 C 10,6 C 83 % 1011,9 hPa 0,0 l/m 0 min 0 min 154 W/m 32,2 km/h (5 Bft) 100,00 %
07.11.2022 13:10 14,7 C 14,4 C 10,6 C 83 % 1011,9 hPa 0,0 l/m 2 min 0 min 185 W/m 35,4 km/h (5 Bft) 100,00 %
07.11.2022 13:13 14,8 C 15,0 C 10,6 C 83 % 1011,8 hPa 0,0 l/m 3 min 0 min 188 W/m 22,5 km/h (4 Bft) 98,59 %
07.11.2022 13:14 14,8 C 15,0 C 10,6 C 83 % 1011,9 hPa 0,0 l/m 1 min 0 min 185 W/m 16,1 km/h (3 Bft) 100,00 %
07.11.2022 13:15 14,8 C 15,0 C 10,6 C 83 % 1011,9 hPa 0,0 l/m 0 min 0 min 178 W/m 22,5 km/h (4 Bft) 100,00 %
07.11.2022 13:18 14,9 C 15,0 C 10,6 C 82 % 1011,9 hPa 0,0 l/m 0 min 0 min 135 W/m 16,1 km/h (3 Bft) 100,00 %
07.11.2022 13:20 14,9 C 14,4 C 10,6 C 82 % 1011,8 hPa 0,0 l/m 0 min 0 min 121 W/m 22,5 km/h (4 Bft) 100,00 %
07.11.2022 13:22 14,9 C 14,4 C 10,6 C 82 % 1011,8 hPa 0,0 l/m 0 min 0 min 119 W/m 19,3 km/h (3 Bft) 100,00 %
07.11.2022 13:24 14,9 C 14,4 C 10,6 C 82 % 1011,8 hPa 0,0 l/m 0 min 0 min 133 W/m 22,5 km/h (4 Bft) 100,00 %
07.11.2022 13:26 14,9 C 14,4 C 10,6 C 82 % 1011,7 hPa 0,0 l/m 0 min 0 min 168 W/m 25,7 km/h (4 Bft) 97,87 %
07.11.2022 13:28 14,9 C 15,0 C 10,6 C 82 % 1011,8 hPa 0,0 l/m 0 min 0 min 173 W/m 35,4 km/h (5 Bft) 100,00 %
07.11.2022 13:30 14,9 C 14,4 C 10,6 C 82 % 1011,9 hPa 0,0 l/m 0 min 0 min 162 W/m 19,3 km/h (3 Bft) 100,00 %
07.11.2022 13:32 14,9 C 14,4 C 10,6 C 82 % 1011,9 hPa 0,0 l/m 0 min 0 min 138 W/m 22,5 km/h (4 Bft) 100,00 %
07.11.2022 13:34 14,9 C 14,4 C 10,6 C 82 % 1011,9 hPa 0,0 l/m 0 min 0 min 126 W/m 22,5 km/h (4 Bft) 97,83 %
07.11.2022 13:36 14,9 C 14,4 C 10,6 C 82 % 1011,9 hPa 0,0 l/m 0 min 0 min 147 W/m 19,3 km/h (3 Bft) 97,87 %
07.11.2022 13:38 14,9 C 14,4 C 10,6 C 82 % 1011,9 hPa 0,0 l/m 0 min 0 min 132 W/m 22,5 km/h (4 Bft) 97,87 %
07.11.2022 13:40 14,9 C 14,4 C 10,6 C 82 % 1012,0 hPa 0,0 l/m 0 min 0 min 114 W/m 38,6 km/h (5 Bft) 97,87 %
07.11.2022 13:42 14,9 C 14,4 C 10,6 C 82 % 1011,9 hPa 0,0 l/m 0 min 0 min 103 W/m 25,7 km/h (4 Bft) 97,87 %
07.11.2022 13:44 14,9 C 14,4 C 10,6 C 82 % 1011,9 hPa 0,0 l/m 0 min 0 min 110 W/m 38,6 km/h (5 Bft) 95,74 %
07.11.2022 13:46 14,9 C 14,4 C 10,6 C 82 % 1011,9 hPa 0,0 l/m 0 min 0 min 103 W/m 19,3 km/h (3 Bft) 95,65 %
07.11.2022 13:48 14,9 C 14,4 C 10,6 C 82 % 1011,9 hPa 0,0 l/m 0 min 0 min 107 W/m 29,0 km/h (5 Bft) 97,87 %
07.11.2022 13:50 14,9 C 14,4 C 10,6 C 81 % 1011,9 hPa 0,0 l/m 0 min 0 min 99 W/m 25,7 km/h (4 Bft) 97,87 %
07.11.2022 13:52 14,9 C 14,4 C 10,6 C 82 % 1011,9 hPa 0,0 l/m 0 min 0 min 99 W/m 32,2 km/h (5 Bft) 97,87 %
07.11.2022 13:54 14,9 C 14,4 C 10,6 C 81 % 1011,9 hPa 0,0 l/m 0 min 0 min 101 W/m 25,7 km/h (4 Bft) 97,87 %
07.11.2022 13:56 14,9 C 14,4 C 10,6 C 81 % 1011,9 hPa 0,0 l/m 0 min 0 min 96 W/m 25,7 km/h (4 Bft) 97,87 %
07.11.2022 13:58 14,9 C 14,4 C 10,6 C 81 % 1012,0 hPa 0,0 l/m 0 min 0 min 106 W/m 35,4 km/h (5 Bft) 97,83 %
07.11.2022 14:00 14,9 C 14,4 C 10,6 C 81 % 1011,9 hPa 0,0 l/m 0 min 0 min 94 W/m 32,2 km/h (5 Bft) 97,87 %
07.11.2022 14:02 14,9 C 14,4 C 10,6 C 81 % 1012,0 hPa 0,0 l/m 0 min 0 min 88 W/m 29,0 km/h (5 Bft) 97,87 %
07.11.2022 14:04 14,9 C 14,4 C 10,6 C 81 % 1012,0 hPa 0,0 l/m 0 min 0 min 98 W/m 38,6 km/h (5 Bft) 97,87 %
07.11.2022 14:06 14,9 C 14,4 C 10,6 C 81 % 1011,9 hPa 0,0 l/m 0 min 0 min 89 W/m 25,7 km/h (4 Bft) 100,00 %
07.11.2022 14:08 14,9 C 14,4 C 10,6 C 81 % 1011,9 hPa 0,0 l/m 0 min 0 min 82 W/m 19,3 km/h (3 Bft) 97,87 %
07.11.2022 14:10 14,9 C 14,4 C 10,6 C 81 % 1011,9 hPa 0,0 l/m 0 min 0 min 76 W/m 38,6 km/h (5 Bft) 97,83 %
07.11.2022 14:12 14,9 C 14,4 C 10,6 C 81 % 1011,9 hPa 0,0 l/m 0 min 0 min 60 W/m 22,5 km/h (4 Bft) 100,00 %
07.11.2022 14:14 14,9 C 14,4 C 10,6 C 81 % 1011,8 hPa 0,0 l/m 0 min 0 min 57 W/m 25,7 km/h (4 Bft) 100,00 %
07.11.2022 14:16 14,9 C 14,4 C 10,6 C 81 % 1011,9 hPa 0,0 l/m 0 min 0 min 72 W/m 35,4 km/h (5 Bft) 100,00 %
07.11.2022 14:18 14,9 C 14,4 C 10,6 C 81 % 1011,9 hPa 0,0 l/m 0 min 0 min 99 W/m 32,2 km/h (5 Bft) 100,00 %
07.11.2022 14:20 14,9 C 14,4 C 10,6 C 81 % 1011,9 hPa 0,0 l/m 0 min 0 min 96 W/m 22,5 km/h (4 Bft) 97,83 %
07.11.2022 14:22 14,9 C 14,4 C 10,6 C 82 % 1011,9 hPa 0,0 l/m 0 min 0 min 85 W/m 22,5 km/h (4 Bft) 100,00 %
07.11.2022 14:24 14,9 C 14,4 C 10,6 C 82 % 1011,9 hPa 0,0 l/m 0 min 0 min 71 W/m 22,5 km/h (4 Bft) 95,74 %
07.11.2022 14:26 14,9 C 14,4 C 10,6 C 82 % 1011,9 hPa 0,0 l/m 0 min 0 min 49 W/m 16,1 km/h (3 Bft) 95,74 %
07.11.2022 14:28 14,9 C 14,4 C 10,6 C 82 % 1011,9 hPa 0,0 l/m 0 min 0 min 46 W/m 22,5 km/h (4 Bft) 97,87 %
07.11.2022 14:30 14,9 C 14,4 C 10,6 C 82 % 1011,9 hPa 0,0 l/m 0 min 0 min 70 W/m 19,3 km/h (3 Bft) 97,87 %
07.11.2022 14:32 14,9 C 14,4 C 10,6 C 82 % 1012,0 hPa 0,0 l/m 0 min 0 min 59 W/m 35,4 km/h (5 Bft) 97,83 %
07.11.2022 14:34 14,8 C 13,9 C 10,6 C 82 % 1011,9 hPa 0,0 l/m 0 min 0 min 38 W/m 25,7 km/h (4 Bft) 97,87 %
07.11.2022 14:36 14,8 C 13,9 C 10,6 C 82 % 1011,9 hPa 0,0 l/m 0 min 0 min 46 W/m 22,5 km/h (4 Bft) 96,61 %
07.11.2022 14:38 14,8 C 14,4 C 10,6 C 82 % 1011,9 hPa 0,0 l/m 0 min 0 min 73 W/m 25,7 km/h (4 Bft) 94,29 %
07.11.2022 14:40 14,8 C 14,4 C 10,6 C 82 % 1011,9 hPa 0,0 l/m 0 min 0 min 84 W/m 19,3 km/h (3 Bft) 95,74 %
07.11.2022 14:42 14,8 C 14,4 C 10,6 C 82 % 1011,9 hPa 0,0 l/m 0 min 0 min 79 W/m 22,5 km/h (4 Bft) 95,74 %
07.11.2022 14:44 14,8 C 14,4 C 10,6 C 82 % 1011,9 hPa 0,0 l/m 0 min 0 min 90 W/m 35,4 km/h (5 Bft) 93,48 %
07.11.2022 14:46 14,8 C 14,4 C 10,6 C 82 % 1011,9 hPa 0,0 l/m 0 min 0 min 85 W/m 19,3 km/h (3 Bft) 95,74 %
07.11.2022 14:48 14,8 C 14,4 C 10,6 C 82 % 1011,9 hPa 0,0 l/m 0 min 0 min 86 W/m 22,5 km/h (4 Bft) 95,74 %
07.11.2022 14:50 14,9 C 14,4 C 10,6 C 82 % 1011,8 hPa 0,0 l/m 0 min 0 min 79 W/m 32,2 km/h (5 Bft) 95,74 %
07.11.2022 14:52 14,9 C 14,4 C 10,6 C 81 % 1011,9 hPa 0,0 l/m 0 min 0 min 79 W/m 19,3 km/h (3 Bft) 95,74 %
07.11.2022 14:54 14,9 C 14,4 C 10,6 C 81 % 1011,8 hPa 0,0 l/m 0 min 0 min 67 W/m 32,2 km/h (5 Bft) 95,74 %
07.11.2022 14:56 14,9 C 14,4 C 10,6 C 81 % 1011,8 hPa 0,0 l/m 0 min 0 min 72 W/m 19,3 km/h (3 Bft) 93,48 %
07.11.2022 14:58 14,9 C 14,4 C 10,6 C 81 % 1011,8 hPa 0,0 l/m 0 min 0 min 82 W/m 19,3 km/h (3 Bft) 95,74 %
07.11.2022 15:00 14,9 C 14,4 C 10,6 C 82 % 1011,8 hPa 0,0 l/m 0 min 0 min 82 W/m 19,3 km/h (3 Bft) 95,74 %
07.11.2022 15:02 14,9 C 14,4 C 10,6 C 82 % 1011,8 hPa 0,0 l/m 0 min 0 min 84 W/m 16,1 km/h (3 Bft) 91,49 %
07.11.2022 15:05 14,9 C 14,4 C 10,6 C 82 % 1011,8 hPa 0,0 l/m 0 min 0 min 87 W/m 22,5 km/h (4 Bft) 95,83 %
07.11.2022 15:06 14,9 C 14,4 C 10,6 C 81 % 1011,8 hPa 0,0 l/m 0 min 0 min 82 W/m 25,7 km/h (4 Bft) 91,67 %
07.11.2022 15:08 14,9 C 14,4 C 10,6 C 81 % 1011,8 hPa 0,0 l/m 0 min 0 min 77 W/m 32,2 km/h (5 Bft) 95,65 %
07.11.2022 15:11 14,9 C 14,4 C 10,6 C 81 % 1011,8 hPa 0,0 l/m 0 min 0 min 77 W/m 19,3 km/h (3 Bft) 95,77 %
07.11.2022 15:12 14,9 C 14,4 C 10,6 C 82 % 1011,8 hPa 0,0 l/m 0 min 0 min 72 W/m 19,3 km/h (3 Bft) 95,65 %
07.11.2022 15:14 14,9 C 14,4 C 10,6 C 82 % 1011,8 hPa 0,0 l/m 0 min 0 min 70 W/m 25,7 km/h (4 Bft) 97,87 %
07.11.2022 15:16 14,9 C 14,4 C 10,6 C 81 % 1011,8 hPa 0,0 l/m 0 min 0 min 74 W/m 25,7 km/h (4 Bft) 95,74 %
07.11.2022 15:18 14,9 C 14,4 C 10,6 C 81 % 1011,8 hPa 0,0 l/m 0 min 0 min 74 W/m 22,5 km/h (4 Bft) 95,74 %
07.11.2022 15:20 15,0 C 14,4 C 10,6 C 81 % 1011,7 hPa 0,0 l/m 0 min 0 min 73 W/m 32,2 km/h (5 Bft) 93,48 %
07.11.2022 15:22 15,0 C 14,4 C 10,6 C 81 % 1011,8 hPa 0,0 l/m 0 min 0 min 70 W/m 12,9 km/h (3 Bft) 95,74 %
07.11.2022 15:24 15,0 C 14,4 C 10,6 C 81 % 1011,8 hPa 0,0 l/m 0 min 0 min 64 W/m 22,5 km/h (4 Bft) 95,74 %
07.11.2022 15:26 15,0 C 14,4 C 10,6 C 81 % 1011,8 hPa 0,0 l/m 0 min 0 min 64 W/m 19,3 km/h (3 Bft) 97,87 %
07.11.2022 15:28 15,0 C 14,4 C 10,6 C 82 % 1011,8 hPa 0,0 l/m 0 min 0 min 67 W/m 16,1 km/h (3 Bft) 95,74 %
07.11.2022 15:30 14,9 C 14,4 C 10,6 C 82 % 1011,8 hPa 0,0 l/m 0 min 0 min 66 W/m 22,5 km/h (4 Bft) 97,87 %
07.11.2022 15:32 15,0 C 14,4 C 10,6 C 82 % 1011,8 hPa 0,0 l/m 0 min 0 min 62 W/m 19,3 km/h (3 Bft) 100,00 %
07.11.2022 15:34 14,9 C 14,4 C 10,6 C 82 % 1011,8 hPa 0,0 l/m 0 min 0 min 54 W/m 32,2 km/h (5 Bft) 100,00 %
07.11.2022 15:36 14,9 C 14,4 C 10,6 C 82 % 1011,8 hPa 0,0 l/m 0 min 0 min 53 W/m 25,7 km/h (4 Bft) 100,00 %
07.11.2022 15:38 14,9 C 14,4 C 10,6 C 82 % 1011,8 hPa 0,0 l/m 0 min 0 min 54 W/m 19,3 km/h (3 Bft) 100,00 %
07.11.2022 15:40 14,9 C 14,4 C 10,6 C 82 % 1011,8 hPa 0,0 l/m 0 min 0 min 60 W/m 16,1 km/h (3 Bft) 95,74 %
07.11.2022 15:42 14,9 C 14,4 C 10,6 C 82 % 1011,8 hPa 0,0 l/m 0 min 0 min 70 W/m 19,3 km/h (3 Bft) 95,74 %
07.11.2022 15:44 15,0 C 14,4 C 10,6 C 82 % 1011,8 hPa 0,0 l/m 2 min 0 min 78 W/m 29,0 km/h (5 Bft) 97,83 %
07.11.2022 15:46 15,0 C 14,4 C 10,6 C 82 % 1011,8 hPa 0,0 l/m 2 min 0 min 83 W/m 29,0 km/h (5 Bft) 97,87 %
07.11.2022 15:49 15,0 C 14,4 C 10,6 C 82 % 1011,8 hPa 0,0 l/m 3 min 0 min 83 W/m 12,9 km/h (3 Bft) 97,14 %
07.11.2022 15:50 15,0 C 14,4 C 10,6 C 82 % 1011,8 hPa 0,0 l/m 1 min 0 min 77 W/m 25,7 km/h (4 Bft) 95,83 %
07.11.2022 15:54 15,0 C 14,4 C 10,6 C 82 % 1011,9 hPa 0,0 l/m 4 min 0 min 73 W/m 19,3 km/h (3 Bft) 94,44 %
07.11.2022 15:56 15,0 C 14,4 C 10,6 C 82 % 1011,8 hPa 0,0 l/m 2 min 0 min 69 W/m 19,3 km/h (3 Bft) 97,83 %
07.11.2022 15:58 15,0 C 14,4 C 10,6 C 82 % 1011,8 hPa 0,0 l/m 2 min 0 min 64 W/m 29,0 km/h (5 Bft) 97,87 %
07.11.2022 16:00 15,0 C 14,4 C 10,6 C 82 % 1011,8 hPa 0,0 l/m 0 min 0 min 59 W/m 22,5 km/h (4 Bft) 95,74 %
07.11.2022 16:02 15,0 C 14,4 C 10,6 C 82 % 1011,8 hPa 0,0 l/m 0 min 0 min 54 W/m 29,0 km/h (5 Bft) 95,74 %
07.11.2022 16:04 15,0 C 14,4 C 10,6 C 82 % 1011,8 hPa 0,0 l/m 0 min 0 min 50 W/m 19,3 km/h (3 Bft) 97,87 %
07.11.2022 16:06 15,0 C 14,4 C 10,6 C 82 % 1011,7 hPa 0,0 l/m 0 min 0 min 48 W/m 19,3 km/h (3 Bft) 91,49 %
07.11.2022 16:08 14,9 C 14,4 C 10,6 C 82 % 1011,8 hPa 0,0 l/m 0 min 0 min 44 W/m 19,3 km/h (3 Bft) 97,83 %
07.11.2022 16:10 14,9 C 14,4 C 10,6 C 82 % 1011,6 hPa 0,0 l/m 0 min 0 min 41 W/m 22,5 km/h (4 Bft) 97,87 %
07.11.2022 16:12 14,9 C 13,9 C 10,6 C 82 % 1011,7 hPa 0,0 l/m 0 min 0 min 38 W/m 22,5 km/h (4 Bft) 95,74 %
07.11.2022 16:14 14,9 C 13,9 C 10,6 C 82 % 1011,7 hPa 0,0 l/m 0 min 0 min 36 W/m 12,9 km/h (3 Bft) 100,00 %
07.11.2022 16:16 14,9 C 13,9 C 10,6 C 82 % 1011,8 hPa 0,0 l/m 0 min 0 min 33 W/m 19,3 km/h (3 Bft) 97,87 %
07.11.2022 16:18 14,9 C 13,9 C 10,6 C 82 % 1011,7 hPa 0,0 l/m 0 min 0 min 32 W/m 22,5 km/h (4 Bft) 97,83 %
07.11.2022 16:20 14,8 C 13,9 C 10,6 C 82 % 1011,8 hPa 0,0 l/m 0 min 0 min 29 W/m 19,3 km/h (3 Bft) 100,00 %
07.11.2022 16:22 14,8 C 13,9 C 10,6 C 82 % 1011,8 hPa 0,0 l/m 0 min 0 min 28 W/m 19,3 km/h (3 Bft) 100,00 %
07.11.2022 16:24 14,8 C 13,9 C 10,6 C 82 % 1011,8 hPa 0,0 l/m 0 min 0 min 27 W/m 29,0 km/h (5 Bft) 97,87 %
07.11.2022 16:26 14,8 C 13,9 C 10,6 C 82 % 1011,9 hPa 0,0 l/m 0 min 0 min 26 W/m 19,3 km/h (3 Bft) 100,00 %
07.11.2022 16:28 14,8 C 13,9 C 10,0 C 82 % 1011,8 hPa 0,0 l/m 0 min 0 min 24 W/m 12,9 km/h (3 Bft) 100,00 %
07.11.2022 16:30 14,8 C 13,9 C 10,0 C 82 % 1011,9 hPa 0,0 l/m 0 min 0 min 22 W/m 19,3 km/h (3 Bft) 97,87 %
07.11.2022 16:32 14,8 C 13,9 C 10,0 C 82 % 1011,9 hPa 0,0 l/m 0 min 0 min 19 W/m 16,1 km/h (3 Bft) 100,00 %
07.11.2022 16:34 14,7 C 13,9 C 10,0 C 83 % 1011,8 hPa 0,0 l/m 0 min 0 min 18 W/m 16,1 km/h (3 Bft) 100,00 %
07.11.2022 16:36 14,7 C 13,9 C 10,0 C 83 % 1011,8 hPa 0,0 l/m 0 min 0 min 16 W/m 16,1 km/h (3 Bft) 97,87 %
07.11.2022 16:38 14,7 C 13,9 C 10,0 C 83 % 1011,8 hPa 0,0 l/m 0 min 0 min 12 W/m 22,5 km/h (4 Bft) 100,00 %
07.11.2022 16:40 14,7 C 13,9 C 10,0 C 83 % 1011,9 hPa 0,0 l/m 0 min 0 min 12 W/m 32,2 km/h (5 Bft) 100,00 %
07.11.2022 16:42 14,7 C 13,9 C 10,0 C 83 % 1011,9 hPa 0,0 l/m 0 min 0 min 12 W/m 25,7 km/h (4 Bft) 95,65 %
07.11.2022 16:44 14,7 C 13,9 C 10,0 C 83 % 1011,9 hPa 0,0 l/m 0 min 0 min 12 W/m 19,3 km/h (3 Bft) 100,00 %
07.11.2022 16:46 14,7 C 13,9 C 10,0 C 83 % 1011,9 hPa 0,0 l/m 0 min 0 min 13 W/m 22,5 km/h (4 Bft) 100,00 %
07.11.2022 16:48 14,7 C 13,9 C 10,0 C 83 % 1011,9 hPa 0,0 l/m 0 min 0 min 16 W/m 29,0 km/h (5 Bft) 97,87 %
07.11.2022 16:50 14,7 C 13,9 C 10,6 C 82 % 1011,9 hPa 0,0 l/m 0 min 0 min 15 W/m 22,5 km/h (4 Bft) 100,00 %
07.11.2022 16:52 14,7 C 13,9 C 10,0 C 82 % 1011,9 hPa 0,0 l/m 0 min 0 min 11 W/m 19,3 km/h (3 Bft) 100,00 %
07.11.2022 16:54 14,7 C 13,9 C 10,0 C 83 % 1011,9 hPa 0,0 l/m 0 min 0 min 7 W/m 19,3 km/h (3 Bft) 97,83 %
07.11.2022 16:56 14,7 C 13,9 C 10,0 C 83 % 1011,9 hPa 0,0 l/m 0 min 0 min 5 W/m 35,4 km/h (5 Bft) 100,00 %
07.11.2022 16:58 14,7 C 13,9 C 10,0 C 83 % 1011,9 hPa 0,0 l/m 0 min 0 min 2 W/m 19,3 km/h (3 Bft) 100,00 %
07.11.2022 17:00 14,7 C 13,9 C 10,0 C 83 % 1011,9 hPa 0,0 l/m 0 min 0 min 0 W/m 19,3 km/h (3 Bft) 97,87 %
07.11.2022 17:02 14,7 C 13,9 C 10,0 C 83 % 1011,9 hPa 0,0 l/m 0 min 0 min 0 W/m 19,3 km/h (3 Bft) 97,87 %
07.11.2022 17:04 14,7 C 13,9 C 10,0 C 83 % 1011,9 hPa 0,0 l/m 0 min 0 min 0 W/m 29,0 km/h (5 Bft) 95,74 %
07.11.2022 17:06 14,7 C 13,9 C 10,0 C 83 % 1011,9 hPa 0,0 l/m 0 min 0 min 0 W/m 16,1 km/h (3 Bft) 89,13 %
07.11.2022 17:08 14,7 C 13,9 C 10,0 C 83 % 1011,9 hPa 0,0 l/m 0 min 0 min 0 W/m 22,5 km/h (4 Bft) 98,18 %
07.11.2022 17:10 14,7 C 13,9 C 10,0 C 83 % 1011,9 hPa 0,0 l/m 0 min 0 min 0 W/m 19,3 km/h (3 Bft) 97,87 %
07.11.2022 17:12 14,7 C 13,9 C 10,0 C 83 % 1012,0 hPa 0,0 l/m 0 min 0 min 0 W/m 19,3 km/h (3 Bft) 95,74 %
07.11.2022 17:14 14,7 C 13,9 C 10,0 C 83 % 1011,9 hPa 0,0 l/m 0 min 0 min 0 W/m 22,5 km/h (4 Bft) 97,87 %
07.11.2022 17:16 14,7 C 13,9 C 10,0 C 83 % 1012,0 hPa 0,0 l/m 0 min 0 min 0 W/m 22,5 km/h (4 Bft) 91,49 %
07.11.2022 17:18 14,7 C 13,9 C 10,0 C 83 % 1012,0 hPa 0,0 l/m 0 min 0 min 0 W/m 19,3 km/h (3 Bft) 93,48 %
07.11.2022 17:20 14,7 C 13,9 C 10,0 C 83 % 1012,1 hPa 0,0 l/m 0 min 0 min 0 W/m 25,7 km/h (4 Bft) 95,74 %
07.11.2022 17:22 14,6 C 13,9 C 10,0 C 83 % 1012,0 hPa 0,0 l/m 0 min 0 min 0 W/m 22,5 km/h (4 Bft) 95,74 %
07.11.2022 17:24 14,6 C 13,9 C 10,0 C 83 % 1012,0 hPa 0,0 l/m 0 min 0 min 0 W/m 16,1 km/h (3 Bft) 97,87 %
07.11.2022 17:26 14,6 C 13,9 C 10,0 C 83 % 1012,1 hPa 0,0 l/m 0 min 0 min 0 W/m 29,0 km/h (5 Bft) 97,87 %
07.11.2022 17:28 14,6 C 13,9 C 10,0 C 83 % 1012,0 hPa 0,0 l/m 0 min 0 min 0 W/m 22,5 km/h (4 Bft) 95,74 %
07.11.2022 17:30 14,6 C 13,9 C 10,0 C 83 % 1012,1 hPa 0,0 l/m 0 min 0 min 0 W/m 32,2 km/h (5 Bft) 97,83 %
07.11.2022 17:32 14,6 C 13,9 C 10,0 C 83 % 1012,1 hPa 0,0 l/m 0 min 0 min 0 W/m 25,7 km/h (4 Bft) 95,74 %
07.11.2022 17:34 14,6 C 13,9 C 10,0 C 83 % 1012,1 hPa 0,0 l/m 0 min 0 min 0 W/m 22,5 km/h (4 Bft) 93,62 %
07.11.2022 17:36 14,6 C 13,9 C 10,0 C 82 % 1012,1 hPa 0,0 l/m 0 min 0 min 0 W/m 19,3 km/h (3 Bft) 95,74 %
07.11.2022 17:38 14,6 C 13,9 C 10,0 C 82 % 1012,2 hPa 0,0 l/m 0 min 0 min 0 W/m 19,3 km/h (3 Bft) 92,11 %
07.11.2022 17:40 14,6 C 13,9 C 10,0 C 82 % 1012,2 hPa 0,0 l/m 0 min 0 min 0 W/m 19,3 km/h (3 Bft) 93,62 %
07.11.2022 17:42 14,6 C 13,9 C 10,0 C 82 % 1012,2 hPa 0,0 l/m 0 min 0 min 0 W/m 19,3 km/h (3 Bft) 93,62 %
07.11.2022 17:44 14,6 C 13,9 C 10,0 C 82 % 1012,1 hPa 0,0 l/m 0 min 0 min 0 W/m 19,3 km/h (3 Bft) 93,48 %
07.11.2022 17:46 14,6 C 13,9 C 10,0 C 82 % 1012,1 hPa 0,0 l/m 0 min 0 min 0 W/m 22,5 km/h (4 Bft) 89,58 %
07.11.2022 17:48 14,6 C 13,9 C 10,0 C 82 % 1012,1 hPa 0,0 l/m 0 min 0 min 0 W/m 19,3 km/h (3 Bft) 93,62 %
07.11.2022 17:50 14,6 C 13,9 C 10,0 C 82 % 1012,1 hPa 0,0 l/m 0 min 0 min 0 W/m 22,5 km/h (4 Bft) 93,62 %
07.11.2022 17:52 14,6 C 13,9 C 10,0 C 82 % 1012,1 hPa 0,0 l/m 0 min 0 min 0 W/m 25,7 km/h (4 Bft) 95,74 %
07.11.2022 17:54 14,6 C 13,9 C 10,0 C 82 % 1012,1 hPa 0,0 l/m 0 min 0 min 0 W/m 25,7 km/h (4 Bft) 93,48 %
07.11.2022 17:56 14,6 C 13,9 C 10,0 C 82 % 1012,1 hPa 0,0 l/m 0 min 0 min 0 W/m 19,3 km/h (3 Bft) 89,36 %
07.11.2022 17:58 14,6 C 13,9 C 10,0 C 82 % 1012,0 hPa 0,0 l/m 0 min 0 min 0 W/m 19,3 km/h (3 Bft) 95,74 %
07.11.2022 18:00 14,6 C 13,9 C 10,0 C 82 % 1012,1 hPa 0,0 l/m 0 min 0 min 0 W/m 16,1 km/h (3 Bft) 95,74 %
07.11.2022 18:02 14,6 C 13,9 C 10,0 C 82 % 1012,1 hPa 0,0 l/m 0 min 0 min 0 W/m 12,9 km/h (3 Bft) 93,62 %
07.11.2022 18:05 14,5 C 13,9 C 10,0 C 82 % 1012,1 hPa 0,0 l/m 0 min 0 min 0 W/m 19,3 km/h (3 Bft) 94,37 %
07.11.2022 18:06 14,5 C 13,9 C 10,0 C 82 % 1012,2 hPa 0,0 l/m 0 min 0 min 0 W/m 25,7 km/h (4 Bft) 95,65 %
07.11.2022 18:10 14,5 C 13,9 C 10,0 C 82 % 1012,1 hPa 0,0 l/m 0 min 0 min 0 W/m 12,9 km/h (3 Bft) 97,83 %
07.11.2022 18:12 14,5 C 13,9 C 10,0 C 82 % 1012,1 hPa 0,0 l/m 0 min 0 min 0 W/m 22,5 km/h (4 Bft) 97,87 %
07.11.2022 18:14 14,5 C 13,9 C 10,0 C 82 % 1012,2 hPa 0,0 l/m 0 min 0 min 0 W/m 16,1 km/h (3 Bft) 97,87 %
07.11.2022 18:18 14,5 C 13,9 C 10,0 C 82 % 1012,1 hPa 0,0 l/m 0 min 0 min 0 W/m 25,7 km/h (4 Bft) 97,14 %
07.11.2022 18:20 14,4 C 13,9 C 10,0 C 82 % 1012,1 hPa 0,0 l/m 0 min 0 min 0 W/m 16,1 km/h (3 Bft) 97,14 %
07.11.2022 18:23 14,4 C 13,9 C 10,0 C 82 % 1012,2 hPa 0,0 l/m 0 min 0 min 0 W/m 19,3 km/h (3 Bft) 100,00 %
07.11.2022 18:24 14,4 C 13,9 C 10,0 C 83 % 1012,2 hPa 0,0 l/m 0 min 0 min 0 W/m 22,5 km/h (4 Bft) 100,00 %
07.11.2022 18:28 14,4 C 13,9 C 10,0 C 83 % 1012,2 hPa 0,0 l/m 0 min 0 min 0 W/m 22,5 km/h (4 Bft) 100,00 %
07.11.2022 18:30 14,4 C 13,9 C 10,0 C 83 % 1012,2 hPa 0,0 l/m 0 min 0 min 0 W/m 16,1 km/h (3 Bft) 100,00 %
07.11.2022 18:32 14,4 C 13,9 C 10,0 C 83 % 1012,2 hPa 0,0 l/m 0 min 0 min 0 W/m 19,3 km/h (3 Bft) 100,00 %
07.11.2022 18:34 14,4 C 13,9 C 10,0 C 83 % 1012,3 hPa 0,0 l/m 0 min 0 min 0 W/m 16,1 km/h (3 Bft) 100,00 %
07.11.2022 18:36 14,4 C 13,9 C 10,0 C 83 % 1012,3 hPa 0,0 l/m 0 min 0 min 0 W/m 29,0 km/h (5 Bft) 100,00 %
07.11.2022 18:38 14,4 C 13,9 C 10,0 C 83 % 1012,3 hPa 0,0 l/m 0 min 0 min 0 W/m 22,5 km/h (4 Bft) 100,00 %
07.11.2022 18:40 14,4 C 13,9 C 10,0 C 83 % 1012,3 hPa 0,0 l/m 0 min 0 min 0 W/m 12,9 km/h (3 Bft) 100,00 %
07.11.2022 18:42 14,4 C 13,3 C 10,0 C 83 % 1012,3 hPa 0,0 l/m 0 min 0 min 0 W/m 12,9 km/h (3 Bft) 100,00 %
07.11.2022 18:44 14,4 C 13,3 C 10,0 C 83 % 1012,3 hPa 0,0 l/m 0 min 0 min 0 W/m 9,7 km/h (2 Bft) 100,00 %
07.11.2022 18:46 14,3 C 13,3 C 10,0 C 83 % 1012,4 hPa 0,0 l/m 0 min 0 min 0 W/m 19,3 km/h (3 Bft) 100,00 %
07.11.2022 18:48 14,3 C 13,3 C 9,4 C 83 % 1012,4 hPa 0,0 l/m 0 min 0 min 0 W/m 6,4 km/h (2 Bft) 100,00 %
07.11.2022 18:50 14,3 C 13,3 C 9,4 C 83 % 1012,4 hPa 0,0 l/m 0 min 0 min 0 W/m 19,3 km/h (3 Bft) 97,87 %
07.11.2022 18:52 14,3 C 13,3 C 9,4 C 83 % 1012,4 hPa 0,0 l/m 0 min 0 min 0 W/m 12,9 km/h (3 Bft) 100,00 %
07.11.2022 18:54 14,3 C 13,3 C 9,4 C 83 % 1012,4 hPa 0,0 l/m 0 min 0 min 0 W/m 19,3 km/h (3 Bft) 100,00 %
07.11.2022 18:56 14,3 C 13,3 C 9,4 C 84 % 1012,4 hPa 0,0 l/m 0 min 0 min 0 W/m 19,3 km/h (3 Bft) 100,00 %
07.11.2022 18:58 14,3 C 13,3 C 9,4 C 84 % 1012,4 hPa 0,0 l/m 0 min 0 min 0 W/m 12,9 km/h (3 Bft) 100,00 %
07.11.2022 19:00 14,3 C 13,3 C 9,4 C 84 % 1012,4 hPa 0,0 l/m 0 min 0 min 0 W/m 6,4 km/h (2 Bft) 100,00 %
07.11.2022 19:02 14,3 C 13,3 C 9,4 C 84 % 1012,4 hPa 0,0 l/m 0 min 0 min 0 W/m 6,4 km/h (2 Bft) 100,00 %
07.11.2022 19:04 14,3 C 13,3 C 9,4 C 84 % 1012,4 hPa 0,0 l/m 0 min 0 min 0 W/m 6,4 km/h (2 Bft) 100,00 %
07.11.2022 19:06 14,3 C 13,3 C 9,4 C 84 % 1012,4 hPa 0,0 l/m 0 min 0 min 0 W/m 16,1 km/h (3 Bft) 100,00 %
07.11.2022 19:08 14,3 C 13,3 C 9,4 C 84 % 1012,3 hPa 0,0 l/m 0 min 0 min 0 W/m 12,9 km/h (3 Bft) 100,00 %
07.11.2022 19:10 14,3 C 13,3 C 9,4 C 84 % 1012,3 hPa 0,0 l/m 0 min 0 min 0 W/m 6,4 km/h (2 Bft) 100,00 %
07.11.2022 19:12 14,3 C 13,3 C 9,4 C 84 % 1012,3 hPa 0,0 l/m 0 min 0 min 0 W/m 16,1 km/h (3 Bft) 100,00 %
07.11.2022 19:14 14,3 C 13,3 C 9,4 C 84 % 1012,2 hPa 0,0 l/m 0 min 0 min 0 W/m 9,7 km/h (2 Bft) 100,00 %
07.11.2022 19:16 14,3 C 13,3 C 9,4 C 84 % 1012,2 hPa 0,0 l/m 0 min 0 min 0 W/m 9,7 km/h (2 Bft) 97,87 %
07.11.2022 19:18 14,3 C 13,3 C 9,4 C 84 % 1012,2 hPa 0,0 l/m 0 min 0 min 0 W/m 9,7 km/h (2 Bft) 100,00 %
07.11.2022 19:20 14,3 C 13,3 C 9,4 C 84 % 1012,2 hPa 0,0 l/m 0 min 0 min 0 W/m 19,3 km/h (3 Bft) 97,83 %
07.11.2022 19:23 14,3 C 13,3 C 9,4 C 84 % 1012,2 hPa 0,0 l/m 0 min 0 min 0 W/m 12,9 km/h (3 Bft) 98,78 %
07.11.2022 19:24 14,3 C 13,3 C 9,4 C 84 % 1012,2 hPa 0,0 l/m 0 min 0 min 0 W/m 3,2 km/h (1 Bft) 91,67 %
07.11.2022 19:26 14,3 C 13,3 C 9,4 C 84 % 1012,2 hPa 0,0 l/m 0 min 0 min 0 W/m 12,9 km/h (3 Bft) 100,00 %
07.11.2022 19:28 14,3 C 13,3 C 9,4 C 84 % 1012,2 hPa 0,0 l/m 0 min 0 min 0 W/m 6,4 km/h (2 Bft) 100,00 %
07.11.2022 19:30 14,3 C 13,3 C 9,4 C 84 % 1012,2 hPa 0,0 l/m 0 min 0 min 0 W/m 6,4 km/h (2 Bft) 97,83 %
07.11.2022 19:32 14,3 C 13,3 C 9,4 C 84 % 1012,3 hPa 0,0 l/m 0 min 0 min 0 W/m 6,4 km/h (2 Bft) 97,87 %
07.11.2022 19:34 14,3 C 13,3 C 9,4 C 84 % 1012,3 hPa 0,0 l/m 0 min 0 min 0 W/m 6,4 km/h (2 Bft) 97,87 %
07.11.2022 19:36 14,3 C 13,3 C 9,4 C 84 % 1012,3 hPa 0,0 l/m 0 min 0 min 0 W/m 6,4 km/h (2 Bft) 98,31 %
07.11.2022 19:38 14,3 C 13,3 C 9,4 C 84 % 1012,3 hPa 0,0 l/m 0 min 0 min 0 W/m 6,4 km/h (2 Bft) 97,14 %
07.11.2022 19:40 14,2 C 13,3 C 9,4 C 85 % 1012,3 hPa 0,0 l/m 0 min 0 min 0 W/m 6,4 km/h (2 Bft) 95,74 %
07.11.2022 19:42 14,2 C 13,3 C 9,4 C 85 % 1012,2 hPa 0,0 l/m 0 min 0 min 0 W/m 3,2 km/h (1 Bft) 97,87 %
07.11.2022 19:44 14,2 C 13,3 C 9,4 C 85 % 1012,2 hPa 0,0 l/m 0 min 0 min 0 W/m 6,4 km/h (2 Bft) 97,83 %
07.11.2022 19:46 14,2 C 13,3 C 9,4 C 85 % 1012,2 hPa 0,0 l/m 0 min 0 min 0 W/m 12,9 km/h (3 Bft) 97,87 %
07.11.2022 19:48 14,2 C 13,3 C 9,4 C 85 % 1012,2 hPa 0,0 l/m 0 min 0 min 0 W/m 6,4 km/h (2 Bft) 97,87 %
07.11.2022 19:50 14,2 C 13,3 C 9,4 C 85 % 1012,2 hPa 0,0 l/m 0 min 0 min 0 W/m 9,7 km/h (2 Bft) 97,87 %
07.11.2022 19:52 14,1 C 12,8 C 9,4 C 85 % 1012,1 hPa 0,0 l/m 0 min 0 min 0 W/m 12,9 km/h (3 Bft) 93,62 %
07.11.2022 19:54 14,1 C 12,8 C 9,4 C 85 % 1012,2 hPa 0,0 l/m 0 min 0 min 0 W/m 6,4 km/h (2 Bft) 95,65 %
07.11.2022 19:56 14,1 C 12,8 C 9,4 C 85 % 1012,2 hPa 0,0 l/m 0 min 0 min 0 W/m 12,9 km/h (3 Bft) 93,62 %
07.11.2022 19:58 14,1 C 13,3 C 9,4 C 85 % 1012,3 hPa 0,0 l/m 0 min 0 min 0 W/m 9,7 km/h (2 Bft) 95,74 %
07.11.2022 20:00 14,1 C 13,3 C 9,4 C 85 % 1012,3 hPa 0,0 l/m 0 min 0 min 0 W/m 6,4 km/h (2 Bft) 95,74 %
07.11.2022 20:02 14,1 C 13,3 C 9,4 C 85 % 1012,3 hPa 0,0 l/m 0 min 0 min 0 W/m 6,4 km/h (2 Bft) 93,62 %
07.11.2022 20:04 14,0 C 13,3 C 9,4 C 85 % 1012,3 hPa 0,0 l/m 0 min 0 min 0 W/m 6,4 km/h (2 Bft) 93,62 %
07.11.2022 20:06 14,0 C 13,3 C 9,4 C 85 % 1012,3 hPa 0,0 l/m 0 min 0 min 0 W/m 9,7 km/h (2 Bft) 94,83 %
07.11.2022 20:08 14,0 C 13,3 C 9,4 C 85 % 1012,4 hPa 0,0 l/m 0 min 0 min 0 W/m 6,4 km/h (2 Bft) 97,14 %
07.11.2022 20:10 14,0 C 13,3 C 9,4 C 85 % 1012,4 hPa 0,0 l/m 0 min 0 min 0 W/m 16,1 km/h (3 Bft) 97,87 %
07.11.2022 20:12 14,1 C 13,3 C 9,4 C 85 % 1012,3 hPa 0,0 l/m 0 min 0 min 0 W/m 16,1 km/h (3 Bft) 95,74 %
07.11.2022 20:14 14,1 C 13,3 C 9,4 C 85 % 1012,3 hPa 0,0 l/m 0 min 0 min 0 W/m 6,4 km/h (2 Bft) 95,74 %
07.11.2022 20:16 14,1 C 13,3 C 9,4 C 86 % 1012,3 hPa 0,0 l/m 0 min 0 min 0 W/m 9,7 km/h (2 Bft) 95,74 %
07.11.2022 20:18 14,1 C 13,3 C 9,4 C 86 % 1012,3 hPa 0,0 l/m 0 min 0 min 0 W/m 12,9 km/h (3 Bft) 95,65 %
07.11.2022 20:20 14,1 C 13,3 C 9,4 C 86 % 1012,3 hPa 0,0 l/m 0 min 0 min 0 W/m 6,4 km/h (2 Bft) 97,87 %
07.11.2022 20:22 14,1 C 13,3 C 9,4 C 86 % 1012,4 hPa 0,0 l/m 0 min 0 min 0 W/m 9,7 km/h (2 Bft) 97,87 %
07.11.2022 20:24 14,1 C 13,3 C 9,4 C 85 % 1012,4 hPa 0,0 l/m 0 min 0 min 0 W/m 12,9 km/h (3 Bft) 96,15 %
07.11.2022 20:26 14,1 C 13,3 C 9,4 C 85 % 1012,4 hPa 0,0 l/m 0 min 0 min 0 W/m 12,9 km/h (3 Bft) 95,74 %
07.11.2022 20:28 14,1 C 13,3 C 9,4 C 85 % 1012,4 hPa 0,0 l/m 0 min 0 min 0 W/m 19,3 km/h (3 Bft) 89,36 %
07.11.2022 20:31 14,1 C 13,3 C 9,4 C 85 % 1012,5 hPa 0,0 l/m 0 min 0 min 0 W/m 16,1 km/h (3 Bft) 90,00 %
07.11.2022 20:32 14,1 C 13,3 C 9,4 C 85 % 1012,5 hPa 0,0 l/m 0 min 0 min 0 W/m 6,4 km/h (2 Bft) 87,50 %
07.11.2022 20:34 14,2 C 13,3 C 9,4 C 85 % 1012,4 hPa 0,0 l/m 0 min 0 min 0 W/m 12,9 km/h (3 Bft) 93,62 %
07.11.2022 20:36 14,2 C 13,3 C 9,4 C 85 % 1012,3 hPa 0,0 l/m 0 min 0 min 0 W/m 16,1 km/h (3 Bft) 95,65 %
07.11.2022 20:38 14,2 C 13,3 C 9,4 C 85 % 1012,3 hPa 0,0 l/m 0 min 0 min 0 W/m 12,9 km/h (3 Bft) 93,62 %
07.11.2022 20:40 14,2 C 13,3 C 9,4 C 85 % 1012,3 hPa 0,0 l/m 0 min 0 min 0 W/m 16,1 km/h (3 Bft) 95,74 %
07.11.2022 20:42 14,2 C 13,3 C 9,4 C 85 % 1012,3 hPa 0,0 l/m 0 min 0 min 0 W/m 6,4 km/h (2 Bft) 97,87 %
07.11.2022 20:44 14,2 C 13,3 C 9,4 C 85 % 1012,3 hPa 0,0 l/m 0 min 0 min 0 W/m 9,7 km/h (2 Bft) 93,62 %
07.11.2022 20:46 14,1 C 13,3 C 9,4 C 85 % 1012,4 hPa 0,0 l/m 0 min 0 min 0 W/m 6,4 km/h (2 Bft) 93,48 %
07.11.2022 20:48 14,1 C 13,3 C 9,4 C 85 % 1012,4 hPa 0,0 l/m 0 min 0 min 0 W/m 3,2 km/h (1 Bft) 95,74 %
07.11.2022 20:50 14,1 C 13,3 C 9,4 C 85 % 1012,4 hPa 0,0 l/m 0 min 0 min 0 W/m 6,4 km/h (2 Bft) 95,74 %
07.11.2022 20:52 14,1 C 12,8 C 9,4 C 85 % 1012,4 hPa 0,0 l/m 0 min 0 min 0 W/m 12,9 km/h (3 Bft) 95,74 %
07.11.2022 20:54 14,1 C 12,8 C 9,4 C 85 % 1012,4 hPa 0,0 l/m 0 min 0 min 0 W/m 12,9 km/h (3 Bft) 97,87 %
07.11.2022 20:56 14,0 C 12,8 C 9,4 C 85 % 1012,4 hPa 0,0 l/m 0 min 0 min 0 W/m 16,1 km/h (3 Bft) 91,49 %
07.11.2022 20:58 13,9 C 12,8 C 9,4 C 85 % 1012,4 hPa 0,0 l/m 0 min 0 min 0 W/m 6,4 km/h (2 Bft) 91,30 %
07.11.2022 21:00 13,9 C 12,8 C 9,4 C 85 % 1012,4 hPa 0,0 l/m 0 min 0 min 0 W/m 6,4 km/h (2 Bft) 91,49 %
07.11.2022 21:02 13,9 C 12,8 C 9,4 C 85 % 1012,4 hPa 0,0 l/m 0 min 0 min 0 W/m 3,2 km/h (1 Bft) 95,74 %
07.11.2022 21:04 13,9 C 12,8 C 9,4 C 85 % 1012,4 hPa 0,0 l/m 0 min 0 min 0 W/m 16,1 km/h (3 Bft) 93,62 %
07.11.2022 21:06 13,8 C 12,8 C 9,4 C 86 % 1012,4 hPa 0,0 l/m 0 min 0 min 0 W/m 6,4 km/h (2 Bft) 97,87 %
07.11.2022 21:08 13,8 C 12,8 C 9,4 C 86 % 1012,4 hPa 0,0 l/m 0 min 0 min 0 W/m 12,9 km/h (3 Bft) 95,74 %
07.11.2022 21:10 13,8 C 12,8 C 9,4 C 86 % 1012,4 hPa 0,0 l/m 0 min 0 min 0 W/m 12,9 km/h (3 Bft) 78,72 %
07.11.2022 21:12 13,8 C 12,8 C 9,4 C 86 % 1012,4 hPa 0,0 l/m 0 min 0 min 0 W/m 3,2 km/h (1 Bft) 91,67 %
07.11.2022 21:14 13,8 C 12,8 C 9,4 C 86 % 1012,4 hPa 0,0 l/m 0 min 0 min 0 W/m 6,4 km/h (2 Bft) 94,55 %
07.11.2022 21:16 13,7 C 12,8 C 9,4 C 86 % 1012,4 hPa 0,0 l/m 0 min 0 min 0 W/m 16,1 km/h (3 Bft) 97,96 %
07.11.2022 21:18 13,7 C 12,8 C 8,9 C 86 % 1012,5 hPa 0,0 l/m 0 min 0 min 0 W/m 9,7 km/h (2 Bft) 97,92 %
07.11.2022 21:20 13,7 C 12,8 C 8,9 C 86 % 1012,4 hPa 0,0 l/m 0 min 0 min 0 W/m 9,7 km/h (2 Bft) 100,00 %
07.11.2022 21:22 13,7 C 12,8 C 8,9 C 86 % 1012,5 hPa 0,0 l/m 0 min 0 min 0 W/m 12,9 km/h (3 Bft) 98,18 %
07.11.2022 21:24 13,7 C 12,8 C 8,9 C 86 % 1012,5 hPa 0,0 l/m 0 min 0 min 0 W/m 12,9 km/h (3 Bft) 100,00 %
07.11.2022 21:26 13,6 C 12,8 C 8,9 C 86 % 1012,5 hPa 0,0 l/m 0 min 0 min 0 W/m 6,4 km/h (2 Bft) 100,00 %
07.11.2022 21:28 13,6 C 12,8 C 8,9 C 86 % 1012,5 hPa 0,0 l/m 0 min 0 min 0 W/m 12,9 km/h (3 Bft) 97,14 %
07.11.2022 21:30 13,6 C 12,8 C 8,9 C 86 % 1012,5 hPa 0,0 l/m 0 min 0 min 0 W/m 12,9 km/h (3 Bft) 100,00 %
07.11.2022 21:32 13,6 C 12,8 C 8,9 C 86 % 1012,5 hPa 0,0 l/m 0 min 0 min 0 W/m 12,9 km/h (3 Bft) 96,00 %
07.11.2022 21:34 13,6 C 12,2 C 8,9 C 86 % 1012,5 hPa 0,0 l/m 0 min 0 min 0 W/m 3,2 km/h (1 Bft) 97,87 %
07.11.2022 21:37 13,5 C 12,2 C 8,9 C 86 % 1012,5 hPa 0,0 l/m 0 min 0 min 0 W/m 6,4 km/h (2 Bft) 97,18 %
07.11.2022 21:38 13,5 C 12,2 C 8,9 C 86 % 1012,5 hPa 0,0 l/m 0 min 0 min 0 W/m 3,2 km/h (1 Bft) 95,65 %
07.11.2022 21:40 13,4 C 12,2 C 8,9 C 86 % 1012,5 hPa 0,0 l/m 0 min 0 min 0 W/m 6,4 km/h (2 Bft) 97,87 %
07.11.2022 21:42 13,4 C 12,2 C 8,9 C 86 % 1012,4 hPa 0,0 l/m 0 min 0 min 0 W/m 12,9 km/h (3 Bft) 97,87 %
07.11.2022 21:44 13,4 C 12,2 C 8,9 C 86 % 1012,5 hPa 0,0 l/m 0 min 0 min 0 W/m 12,9 km/h (3 Bft) 97,87 %
07.11.2022 21:46 13,4 C 12,2 C 8,9 C 86 % 1012,5 hPa 0,0 l/m 0 min 0 min 0 W/m 6,4 km/h (2 Bft) 95,65 %
07.11.2022 21:48 13,3 C 12,2 C 8,9 C 86 % 1012,5 hPa 0,0 l/m 0 min 0 min 0 W/m 9,7 km/h (2 Bft) 97,87 %
07.11.2022 21:50 13,3 C 12,2 C 8,9 C 86 % 1012,5 hPa 0,0 l/m 0 min 0 min 0 W/m 9,7 km/h (2 Bft) 97,87 %
07.11.2022 21:52 13,3 C 12,2 C 8,9 C 86 % 1012,5 hPa 0,0 l/m 0 min 0 min 0 W/m 12,9 km/h (3 Bft) 97,87 %
07.11.2022 21:54 13,3 C 12,2 C 8,9 C 86 % 1012,5 hPa 0,0 l/m 0 min 0 min 0 W/m 6,4 km/h (2 Bft) 97,87 %
07.11.2022 21:56 13,2 C 12,2 C 8,9 C 86 % 1012,5 hPa 0,0 l/m 0 min 0 min 0 W/m 6,4 km/h (2 Bft) 97,83 %
07.11.2022 21:58 13,2 C 12,2 C 8,9 C 86 % 1012,5 hPa 0,0 l/m 0 min 0 min 0 W/m 6,4 km/h (2 Bft) 97,87 %
07.11.2022 22:00 13,2 C 12,2 C 8,9 C 87 % 1012,5 hPa 0,0 l/m 0 min 0 min 0 W/m 9,7 km/h (2 Bft) 95,74 %
07.11.2022 22:02 13,1 C 12,2 C 8,9 C 87 % 1012,4 hPa 0,0 l/m 0 min 0 min 0 W/m 6,4 km/h (2 Bft) 100,00 %
07.11.2022 22:04 13,1 C 12,2 C 8,3 C 87 % 1012,4 hPa 0,0 l/m 0 min 0 min 0 W/m 6,4 km/h (2 Bft) 97,96 %
07.11.2022 22:06 13,1 C 12,2 C 8,3 C 87 % 1012,4 hPa 0,0 l/m 0 min 0 min 0 W/m 3,2 km/h (1 Bft) 100,00 %
07.11.2022 22:08 13,1 C 11,7 C 8,3 C 87 % 1012,4 hPa 0,0 l/m 0 min 0 min 0 W/m 3,2 km/h (1 Bft) 100,00 %
07.11.2022 22:10 13,1 C 11,7 C 8,3 C 87 % 1012,5 hPa 0,0 l/m 0 min 0 min 0 W/m 12,9 km/h (3 Bft) 100,00 %
07.11.2022 22:12 13,0 C 11,7 C 8,3 C 87 % 1012,4 hPa 0,0 l/m 0 min 0 min 0 W/m 19,3 km/h (3 Bft) 100,00 %
07.11.2022 22:14 12,9 C 11,7 C 8,3 C 87 % 1012,4 hPa 0,0 l/m 0 min 0 min 0 W/m 9,7 km/h (2 Bft) 100,00 %
07.11.2022 22:17 12,9 C 11,7 C 8,3 C 87 % 1012,5 hPa 0,0 l/m 0 min 0 min 0 W/m 12,9 km/h (3 Bft) 100,00 %
07.11.2022 22:18 12,9 C 11,7 C 8,3 C 87 % 1012,5 hPa 0,0 l/m 0 min 0 min 0 W/m 6,4 km/h (2 Bft) 95,83 %
07.11.2022 22:20 12,9 C 11,7 C 8,3 C 87 % 1012,5 hPa 0,0 l/m 0 min 0 min 0 W/m 6,4 km/h (2 Bft) 100,00 %
07.11.2022 22:22 12,9 C 11,7 C 8,3 C 87 % 1012,5 hPa 0,0 l/m 0 min 0 min 0 W/m 6,4 km/h (2 Bft) 97,87 %
07.11.2022 22:24 12,8 C 11,7 C 8,3 C 88 % 1012,6 hPa 0,0 l/m 0 min 0 min 0 W/m 6,4 km/h (2 Bft) 100,00 %
07.11.2022 22:26 12,8 C 11,7 C 8,3 C 88 % 1012,5 hPa 0,0 l/m 0 min 0 min 0 W/m 12,9 km/h (3 Bft) 100,00 %
07.11.2022 22:28 12,8 C 12,2 C 8,3 C 88 % 1012,5 hPa 0,0 l/m 0 min 0 min 0 W/m 6,4 km/h (2 Bft) 100,00 %
07.11.2022 22:30 12,8 C 12,2 C 8,3 C 88 % 1012,5 hPa 0,0 l/m 0 min 0 min 0 W/m 9,7 km/h (2 Bft) 100,00 %
07.11.2022 22:32 12,8 C 12,2 C 8,3 C 88 % 1012,5 hPa 0,0 l/m 0 min 0 min 0 W/m 6,4 km/h (2 Bft) 97,83 %
07.11.2022 22:34 12,8 C 12,2 C 8,3 C 88 % 1012,5 hPa 0,0 l/m 0 min 0 min 0 W/m 6,4 km/h (2 Bft) 100,00 %
07.11.2022 22:36 12,8 C 12,2 C 8,3 C 88 % 1012,4 hPa 0,0 l/m 0 min 0 min 0 W/m 6,4 km/h (2 Bft) 100,00 %
07.11.2022 22:38 12,8 C 12,2 C 8,3 C 88 % 1012,4 hPa 0,0 l/m 0 min 0 min 0 W/m 12,9 km/h (3 Bft) 100,00 %
07.11.2022 22:41 12,8 C 12,2 C 8,9 C 88 % 1012,4 hPa 0,0 l/m 0 min 0 min 0 W/m 12,9 km/h (3 Bft) 98,57 %
07.11.2022 22:42 12,8 C 12,2 C 8,9 C 88 % 1012,4 hPa 0,0 l/m 0 min 0 min 0 W/m 3,2 km/h (1 Bft) 100,00 %
07.11.2022 22:44 12,8 C 12,2 C 8,9 C 88 % 1012,3 hPa 0,0 l/m 0 min 0 min 0 W/m 9,7 km/h (2 Bft) 100,00 %
07.11.2022 22:46 12,9 C 12,2 C 8,9 C 88 % 1012,3 hPa 0,0 l/m 0 min 0 min 0 W/m 9,7 km/h (2 Bft) 93,62 %
07.11.2022 22:48 12,9 C 12,2 C 8,9 C 88 % 1012,3 hPa 0,0 l/m 0 min 0 min 0 W/m 6,4 km/h (2 Bft) 100,00 %
07.11.2022 22:50 12,9 C 12,2 C 8,9 C 88 % 1012,4 hPa 0,0 l/m 0 min 0 min 0 W/m 6,4 km/h (2 Bft) 95,74 %
07.11.2022 22:52 12,9 C 12,2 C 8,9 C 88 % 1012,3 hPa 0,0 l/m 0 min 0 min 0 W/m 6,4 km/h (2 Bft) 95,74 %
07.11.2022 22:54 12,9 C 12,2 C 8,9 C 88 % 1012,3 hPa 0,0 l/m 0 min 0 min 0 W/m 6,4 km/h (2 Bft) 97,87 %
07.11.2022 22:56 12,9 C 12,2 C 8,9 C 88 % 1012,3 hPa 0,0 l/m 0 min 0 min 0 W/m 3,2 km/h (1 Bft) 97,83 %
07.11.2022 22:58 12,9 C 12,2 C 8,9 C 88 % 1012,3 hPa 0,0 l/m 0 min 0 min 0 W/m 3,2 km/h (1 Bft) 95,74 %
07.11.2022 23:00 12,9 C 12,2 C 8,9 C 88 % 1012,3 hPa 0,0 l/m 0 min 0 min 0 W/m 9,7 km/h (2 Bft) 95,74 %
07.11.2022 23:02 12,9 C 12,2 C 8,9 C 88 % 1012,3 hPa 0,0 l/m 0 min 0 min 0 W/m 16,1 km/h (3 Bft) 95,74 %
07.11.2022 23:04 12,9 C 12,2 C 8,9 C 88 % 1012,3 hPa 0,0 l/m 0 min 0 min 0 W/m 3,2 km/h (1 Bft) 97,87 %
07.11.2022 23:06 12,9 C 12,2 C 8,9 C 88 % 1012,2 hPa 0,0 l/m 0 min 0 min 0 W/m 6,4 km/h (2 Bft) 97,87 %
07.11.2022 23:08 12,9 C 12,2 C 8,9 C 88 % 1012,2 hPa 0,0 l/m 0 min 0 min 0 W/m 6,4 km/h (2 Bft) 95,74 %
07.11.2022 23:10 12,9 C 12,2 C 8,9 C 88 % 1012,2 hPa 0,0 l/m 0 min 0 min 0 W/m 12,9 km/h (3 Bft) 93,62 %
07.11.2022 23:12 12,9 C 12,2 C 8,9 C 88 % 1012,2 hPa 0,0 l/m 0 min 0 min 0 W/m 12,9 km/h (3 Bft) 93,48 %
07.11.2022 23:14 12,9 C 12,2 C 8,3 C 88 % 1012,2 hPa 0,0 l/m 0 min 0 min 0 W/m 6,4 km/h (2 Bft) 93,62 %
07.11.2022 23:16 12,9 C 12,2 C 8,3 C 88 % 1012,2 hPa 0,0 l/m 0 min 0 min 0 W/m 9,7 km/h (2 Bft) 97,37 %
07.11.2022 23:18 12,9 C 11,7 C 8,3 C 88 % 1012,2 hPa 0,0 l/m 0 min 0 min 0 W/m 12,9 km/h (3 Bft) 93,62 %
07.11.2022 23:20 12,9 C 11,7 C 8,3 C 88 % 1012,2 hPa 0,0 l/m 0 min 0 min 0 W/m 6,4 km/h (2 Bft) 90,57 %
07.11.2022 23:22 12,8 C 11,7 C 8,3 C 88 % 1012,2 hPa 0,0 l/m 0 min 0 min 0 W/m 9,7 km/h (2 Bft) 94,00 %
07.11.2022 23:24 12,8 C 11,7 C 8,3 C 88 % 1012,2 hPa 0,0 l/m 0 min 0 min 0 W/m 3,2 km/h (1 Bft) 91,89 %
07.11.2022 23:26 12,8 C 11,7 C 8,3 C 88 % 1012,2 hPa 0,0 l/m 0 min 0 min 0 W/m 12,9 km/h (3 Bft) 93,62 %
07.11.2022 23:29 12,7 C 11,7 C 8,3 C 88 % 1012,1 hPa 0,0 l/m 0 min 0 min 0 W/m 9,7 km/h (2 Bft) 92,86 %
07.11.2022 23:30 12,7 C 11,7 C 8,3 C 88 % 1012,0 hPa 0,0 l/m 0 min 0 min 0 W/m 6,4 km/h (2 Bft) 87,50 %
07.11.2022 23:32 12,7 C 11,7 C 8,3 C 88 % 1012,1 hPa 0,0 l/m 0 min 0 min 0 W/m 6,4 km/h (2 Bft) 93,48 %
07.11.2022 23:34 12,7 C 11,7 C 8,3 C 89 % 1012,0 hPa 0,0 l/m 0 min 0 min 0 W/m 6,4 km/h (2 Bft) 93,62 %
07.11.2022 23:36 12,7 C 11,7 C 8,3 C 89 % 1012,1 hPa 0,0 l/m 0 min 0 min 0 W/m 12,9 km/h (3 Bft) 93,62 %
07.11.2022 23:38 12,6 C 11,7 C 8,3 C 89 % 1012,0 hPa 0,0 l/m 0 min 0 min 0 W/m 12,9 km/h (3 Bft) 93,62 %
07.11.2022 23:40 12,6 C 11,7 C 8,3 C 89 % 1012,0 hPa 0,0 l/m 0 min 0 min 0 W/m 16,1 km/h (3 Bft) 95,74 %
07.11.2022 23:42 12,6 C 11,7 C 8,3 C 89 % 1012,0 hPa 0,0 l/m 0 min 0 min 0 W/m 6,4 km/h (2 Bft) 95,74 %
07.11.2022 23:44 12,6 C 11,7 C 8,3 C 89 % 1012,0 hPa 0,0 l/m 0 min 0 min 0 W/m 3,2 km/h (1 Bft) 93,48 %
07.11.2022 23:46 12,6 C 11,7 C 8,3 C 89 % 1011,9 hPa 0,0 l/m 0 min 0 min 0 W/m 12,9 km/h (3 Bft) 95,74 %
07.11.2022 23:49 12,5 C 11,7 C 8,3 C 89 % 1011,9 hPa 0,0 l/m 0 min 0 min 0 W/m 12,9 km/h (3 Bft) 94,37 %
07.11.2022 23:50 12,5 C 11,7 C 7,8 C 89 % 1011,9 hPa 0,0 l/m 0 min 0 min 0 W/m 3,2 km/h (1 Bft) 95,65 %
07.11.2022 23:54 12,4 C 11,1 C 7,8 C 89 % 1011,9 hPa 0,0 l/m 0 min 0 min 0 W/m 16,1 km/h (3 Bft) 97,87 %
07.11.2022 23:55 12,4 C 11,1 C 7,8 C 89 % 1011,9 hPa 0,0 l/m 0 min 0 min 0 W/m 6,4 km/h (2 Bft) 95,65 %
07.11.2022 23:56 12,4 C 11,1 C 7,8 C 89 % 1011,9 hPa 0,0 l/m 0 min 0 min 0 W/m 12,9 km/h (3 Bft) 100,00 %
_ Min-Zeit 06:26 02:14 02:19 13:50 00:00 - - - - 02:14 03:00
Minimum _ 10,3 C 9,4 C 6,1 C 81 % 1009,4 hPa - - - - 3,2 km/h (1 Bft) 58,06 %
_ Max-Zeit 15:20 13:04 12:52 03:00 22:24 07:08 15:54 00:00 13:13 10:34 00:04
Maximum _ 15,0 C 15,0 C 10,6 C 91 % 1012,6 hPa 0,2 l/m 4 min 0 min 188 W/m 48,3 km/h
S-SO (6 Bft)
100,00 %
Durchschnitt _ 12,9 C 12,2 C 8,6 C 87 % 1011,4 hPa #0,2 l/m #25 min. #0 min. 75 W/m 19,4 km/h (3 Bft) 96,22 %
© 2022 W. Hausmann